<- Previous Day | Today | Next Day ->

All Data for 13 January 2021

 

Time A - D Temp A - D Dew Point A - D Humidity A - D Pressure A - D Wind A - D Wind Dir Gust A - D Rain Rate A - D Rain Total
00:00 9.4 7.5 88 1021.6 15.2 W 15.2 0.0 0.0
00:01 9.4 7.5 88 1021.8 15.2 W 15.2 0.0 0.0
00:02 9.4 7.5 88 1021.6 12.1 NW 15.2 0.0 0.0
00:03 9.4 7.5 88 1021.6 12.1 NW 15.2 0.0 0.0
00:04 9.4 7.5 88 1021.5 15.2 WSW 15.2 0.0 0.0
00:05 9.4 7.5 88 1021.6 15.2 NW 15.2 0.0 0.0
00:07 9.4 7.5 88 1021.5 15.2 W 15.2 0.0 0.0
00:08 9.4 7.5 88 1021.9 13.0 SW 15.2 0.0 0.0
00:09 9.4 7.5 88 1021.7 15.2 W 15.2 0.0 0.0
00:10 9.4 7.5 88 1021.6 19.7 W 19.7 0.0 0.0
00:11 9.4 7.5 88 1021.7 19.0 SW 19.7 0.0 0.0
00:12 9.4 7.5 88 1021.7 19.0 SW 19.7 0.0 0.0
00:13 9.4 7.5 88 1021.7 20.6 W 20.6 0.0 0.0
00:14 9.4 7.5 88 1021.5 15.9 WNW 20.6 0.0 0.0
00:15 9.4 7.5 88 1021.7 15.2 W 20.6 0.0 0.0
00:16 9.4 7.5 88 1021.7 15.2 W 20.6 0.0 0.0
00:17 9.4 7.5 88 1021.4 15.2 W 20.6 0.0 0.0
00:18 9.4 7.5 88 1021.7 15.2 SW 20.6 0.0 0.0
00:19 9.4 7.5 88 1021.8 14.5 W 20.6 0.0 0.0
00:21 9.4 7.5 88 1021.7 12.1 SW 20.6 0.0 0.0
00:22 9.4 7.5 88 1021.6 11.4 W 20.6 0.0 0.0
00:23 9.4 7.5 88 1021.9 18.3 WSW 18.3 0.0 0.0
00:24 9.3 7.4 88 1021.7 9.2 W 18.3 0.0 0.0
00:25 9.3 7.4 88 1021.6 20.6 N 20.6 0.0 0.0
00:26 9.3 7.4 88 1021.6 17.4 SW 20.6 0.0 0.0
00:27 9.3 7.4 88 1021.6 12.1 W 20.6 0.0 0.0
00:28 9.3 7.4 88 1021.8 13.6 W 20.6 0.0 0.0
00:29 9.3 7.4 88 1021.7 14.5 SW 20.6 0.0 0.0
00:30 9.3 7.4 88 1021.7 12.1 SW 20.6 0.0 0.0
00:31 9.3 7.4 88 1021.8 17.4 WSW 20.6 0.0 0.0
00:32 9.3 7.4 88 1021.6 16.8 W 20.6 0.0 0.0
00:33 9.3 7.4 88 1021.7 16.8 W 20.6 0.0 0.0
00:34 9.3 7.4 88 1021.7 10.7 SW 20.6 0.0 0.0
00:36 9.3 7.4 88 1021.6 15.2 W 17.4 0.0 0.0
00:37 9.3 7.4 88 1021.7 15.9 W 17.4 0.0 0.0
00:38 9.3 7.4 88 1021.9 15.9 W 17.4 0.0 0.0
00:39 9.2 7.3 88 1021.6 19.0 SW 19.0 0.0 0.0
00:40 9.2 7.3 88 1021.7 19.0 W 19.0 0.0 0.0
00:41 9.2 7.3 88 1021.7 19.0 W 19.0 0.0 0.0
00:42 9.2 7.3 88 1021.9 15.9 W 19.0 0.0 0.0
00:43 9.3 7.4 88 1021.9 15.9 W 19.0 0.0 0.0
00:44 9.3 7.4 88 1021.7 14.5 W 19.0 0.0 0.0
00:45 9.3 7.4 88 1021.9 15.9 WNW 19.0 0.0 0.0
00:46 9.3 7.4 88 1021.8 13.0 W 19.0 0.0 0.0
00:47 9.3 7.4 88 1021.6 15.2 W 19.0 0.0 0.0
00:48 9.3 7.4 88 1021.7 15.2 W 19.0 0.0 0.0
00:50 9.3 7.4 88 1021.6 13.0 W 19.0 0.0 0.0
00:51 9.3 7.4 88 1021.7 12.1 W 15.9 0.0 0.0
00:52 9.3 7.4 88 1021.7 19.0 W 19.0 0.0 0.0
00:53 9.3 7.4 88 1021.5 19.0 W 19.0 0.0 0.0
00:54 9.3 7.4 88 1021.5 13.0 SW 19.0 0.0 0.0
00:55 9.2 7.3 88 1021.9 13.6 W 19.0 0.0 0.0
00:56 9.2 7.3 88 1021.7 17.4 W 19.0 0.0 0.0
00:57 9.2 7.3 88 1021.5 15.9 W 19.0 0.0 0.0
00:58 9.2 7.3 88 1021.6 15.9 NW 19.0 0.0 0.0
00:59 9.2 7.3 88 1021.8 17.4 SW 19.0 0.0 0.0
01:00 9.2 7.3 88 1021.7 17.4 SW 19.0 0.0 0.0
01:01 9.2 7.3 88 1021.5 17.4 SW 19.0 0.0 0.0
01:02 9.2 7.3 88 1021.8 17.4 SW 19.0 0.0 0.0
01:03 9.2 7.3 88 1021.6 17.4 SW 19.0 0.0 0.0
01:04 9.2 7.3 88 1021.6 17.4 SW 17.4 0.0 0.0
01:05 9.2 7.3 88 1021.8 17.4 SW 17.4 0.0 0.0
01:06 9.2 7.3 88 1021.6 10.7 NW 17.4 0.0 0.0
01:07 9.2 7.3 88 1021.6 13.0 SW 17.4 0.0 0.0
01:08 9.2 7.3 88 1021.9 15.2 SW 17.4 0.0 0.0
01:09 9.2 7.3 88 1021.7 14.5 W 17.4 0.0 0.0
01:11 9.2 7.3 88 1021.7 15.2 SW 17.4 0.0 0.0
01:12 9.2 7.3 88 1021.6 15.9 W 17.4 0.0 0.0
01:13 9.2 7.3 88 1021.7 15.9 W 17.4 0.0 0.0
01:14 9.2 7.3 88 1021.7 19.0 WSW 19.0 0.0 0.0
01:15 9.2 7.3 88 1021.7 15.9 W 19.0 0.0 0.0
01:16 9.2 7.3 88 1021.7 15.9 W 19.0 0.0 0.0
01:17 9.2 7.3 88 1021.4 12.1 W 19.0 0.0 0.0
01:18 9.2 7.3 88 1021.5 9.8 WSW 19.0 0.0 0.0
01:19 9.2 7.3 88 1021.6 13.0 W 19.0 0.8 0.1
01:20 9.2 7.3 88 1021.4 15.2 W 19.0 0.8 0.1
01:21 9.2 7.3 88 1021.5 15.2 W 19.0 0.8 0.1
01:22 9.2 7.3 88 1021.6 15.9 NW 19.0 0.8 0.1
01:23 9.2 7.3 88 1021.6 13.6 W 19.0 0.8 0.1
01:25 9.2 7.3 88 1021.4 17.4 W 17.4 0.0 0.1
01:26 9.2 7.3 88 1021.5 11.4 W 17.4 0.0 0.1
01:27 9.2 7.3 88 1021.5 13.0 NW 17.4 0.0 0.1
01:28 9.2 7.3 88 1021.6 15.9 W 17.4 0.0 0.1
01:29 9.2 7.3 88 1021.3 16.8 W 17.4 0.0 0.1
01:30 9.2 7.3 88 1021.4 16.8 W 17.4 0.0 0.1
01:31 9.2 7.3 88 1021.6 11.4 W 17.4 0.0 0.1
01:32 9.1 7.2 88 1021.5 12.1 SW 17.4 0.0 0.1
01:33 9.1 7.2 88 1021.5 12.1 W 17.4 0.0 0.1
01:34 9.1 7.2 88 1021.6 15.9 SW 17.4 0.0 0.1
01:35 9.1 7.2 88 1021.3 12.1 W 17.4 0.0 0.1
01:36 9.1 7.2 88 1021.4 13.0 W 16.8 0.0 0.1
01:37 9.1 7.2 88 1021.4 12.1 W 16.8 0.0 0.1
01:38 9.1 7.2 88 1021.5 15.9 W 16.8 0.0 0.1
01:40 9.1 7.2 88 1021.4 13.0 W 18.3 0.0 0.1
01:41 9.1 7.2 88 1021.5 20.6 SW 20.6 0.0 0.1
01:42 9.1 7.2 88 1021.4 20.6 W 20.6 0.0 0.1
01:43 9.1 7.2 88 1021.6 18.3 W 20.6 0.0 0.1
01:44 9.1 7.2 88 1021.4 13.6 NW 20.6 0.0 0.1
01:45 9.1 7.2 88 1021.4 15.9 W 20.6 0.0 0.1
01:46 9.1 7.2 88 1021.5 15.9 WSW 20.6 0.0 0.1
01:47 9.1 7.2 88 1021.3 15.9 W 20.6 0.0 0.1
01:48 9.1 7.2 88 1021.3 13.6 WNW 20.6 0.0 0.1
01:49 9.1 7.2 88 1021.3 13.6 W 20.6 0.0 0.1
01:50 9.1 7.2 88 1021.3 13.6 SW 20.6 0.0 0.1
01:51 9.1 7.2 88 1021.3 15.2 W 20.6 0.0 0.1
01:52 9.1 7.2 88 1021.5 15.9 N 20.6 0.0 0.1
01:53 9.1 7.2 88 1021.4 14.5 NW 18.3 0.0 0.1
01:54 9.1 7.2 88 1021.5 12.1 W 18.3 0.0 0.1
01:56 9.1 7.2 88 1021.4 13.6 W 16.8 0.0 0.1
01:57 9.1 7.2 88 1021.4 15.2 SW 16.8 0.0 0.1
01:58 9.1 7.2 88 1021.6 15.2 W 16.8 0.0 0.1
01:59 9.1 7.2 88 1021.5 13.0 W 16.8 0.0 0.1
02:00 9.1 7.2 88 1021.3 13.0 W 16.8 0.0 0.1
02:01 9.1 7.2 88 1021.3 13.0 W 16.8 0.0 0.1
02:02 9.1 7.2 88 1021.4 13.0 W 16.8 0.0 0.1
02:03 9.1 7.2 88 1021.4 15.9 W 16.8 0.0 0.1
02:04 9.1 7.2 88 1021.7 15.9 SW 16.8 0.0 0.1
02:05 9.1 7.2 88 1021.3 15.2 W 16.8 0.0 0.1
02:06 9.1 7.2 88 1021.5 12.1 W 18.3 0.0 0.1
02:07 9.1 7.2 88 1021.6 14.5 W 18.3 0.0 0.1
02:08 9.1 7.2 88 1021.3 10.7 NW 18.3 0.0 0.1
02:09 9.1 7.2 88 1021.4 10.7 W 18.3 0.0 0.1
02:11 9.1 7.2 88 1021.5 14.5 W 18.3 0.0 0.1
02:12 9.1 7.2 88 1021.6 13.0 SW 18.3 0.0 0.1
02:13 9.1 7.2 88 1021.6 15.2 SW 18.3 0.0 0.1
02:14 9.1 7.2 88 1021.4 15.2 NW 18.3 0.0 0.1
02:15 9.1 7.2 88 1021.5 15.2 W 18.3 0.0 0.1
02:16 9.1 7.2 88 1021.5 9.2 NW 15.2 0.0 0.1
02:17 9.1 7.2 88 1021.5 13.0 SW 15.2 0.0 0.1
02:18 9.1 7.2 88 1021.5 12.1 SW 15.2 0.0 0.1
02:19 9.1 7.2 88 1021.4 11.4 NW 15.2 0.8 0.1
02:20 9.1 7.2 88 1021.6 9.8 W 15.2 0.8 0.1
02:21 9.1 7.2 88 1021.6 9.8 W 15.2 0.8 0.1
02:22 9.1 7.2 88 1021.6 14.5 W 15.2 0.8 0.1
02:23 9.1 7.2 88 1021.5 14.5 W 15.2 0.8 0.1
02:24 9.1 7.2 88 1021.5 11.4 W 15.2 0.0 0.1
02:25 9.1 7.2 88 1021.6 11.4 W 15.2 0.0 0.1
02:26 9.1 7.2 88 1021.6 13.6 W 15.2 0.0 0.1
02:27 9.1 7.2 88 1021.6 11.4 SW 14.5 0.0 0.1
02:28 9.1 7.2 88 1021.6 11.4 W 14.5 0.0 0.1
02:29 9.1 7.2 88 1021.8 10.7 SW 14.5 0.0 0.1
02:31 9.1 7.2 88 1021.8 13.0 S 14.5 0.0 0.1
02:32 9.1 7.2 88 1021.5 12.1 NW 14.5 0.0 0.1
02:33 9.1 7.2 88 1021.6 13.0 W 14.5 0.0 0.1
02:34 9.1 7.2 88 1021.7 11.4 W 14.5 0.0 0.1
02:35 9.1 7.2 88 1021.9 13.0 NW 14.5 0.0 0.1
02:36 9.1 7.2 88 1021.9 13.0 NW 13.6 0.0 0.1
02:37 9.1 7.2 88 1021.6 13.0 SW 13.6 0.0 0.1
02:38 9.0 7.1 88 1021.8 17.4 W 17.4 0.0 0.1
02:39 9.0 7.1 88 1021.7 14.5 W 17.4 0.0 0.1
02:40 9.0 7.1 88 1021.5 14.5 WSW 17.4 0.0 0.1
02:41 9.0 7.1 88 1021.6 14.5 SW 17.4 0.0 0.1
02:42 9.0 7.1 88 1021.7 14.5 SW 17.4 0.0 0.1
02:43 9.0 7.1 88 1021.6 17.4 W 17.4 0.0 0.1
02:44 9.0 7.1 88 1021.7 17.4 W 17.4 0.0 0.1
02:47 9.1 7.2 88 1021.7 9.8 W 17.4 0.0 0.1
02:48 9.1 7.2 88 1021.8 12.1 W 17.4 0.0 0.1
02:49 9.1 7.2 88 1021.6 13.0 W 17.4 0.0 0.1
02:50 9.1 7.2 88 1021.7 15.2 W 17.4 0.0 0.1
02:51 9.1 7.2 88 1021.8 15.9 W 17.4 0.0 0.1
02:52 9.1 7.2 88 1021.8 15.9 W 17.4 0.0 0.1
02:53 9.1 7.2 88 1021.7 17.4 W 17.4 0.0 0.1
02:54 9.1 7.2 88 1021.6 13.6 W 17.4 0.0 0.1
02:55 9.1 7.2 88 1021.5 11.4 W 17.4 0.0 0.1
02:56 9.1 7.2 88 1021.7 13.6 SW 17.4 0.0 0.1
02:57 9.1 7.2 88 1021.7 15.9 SW 17.4 0.0 0.1
02:58 9.1 7.2 88 1021.9 13.0 SW 17.4 0.0 0.1
02:59 9.1 7.2 88 1021.8 14.5 W 17.4 0.0 0.1
03:01 9.1 7.2 88 1021.5 14.5 W 17.4 0.0 0.1
03:02 9.1 7.2 88 1021.7 14.5 W 17.4 0.0 0.1
03:03 9.1 7.2 88 1021.8 14.5 W 15.9 0.0 0.1
03:04 9.1 7.2 88 1021.7 14.5 W 15.9 0.0 0.1
03:05 9.1 7.2 88 1021.9 14.5 W 15.9 0.0 0.1
03:06 9.1 7.2 88 1021.6 14.5 W 15.9 0.0 0.1
03:07 9.1 7.2 88 1021.9 13.0 W 14.5 0.0 0.1
03:08 9.1 7.2 88 1021.9 13.0 W 14.5 0.0 0.1
03:09 9.1 7.2 88 1021.8 13.0 W 14.5 0.0 0.1
03:10 9.1 7.2 88 1021.9 13.0 W 14.5 0.0 0.1
03:11 9.1 7.2 88 1021.8 11.4 NW 14.5 0.0 0.1
03:12 9.1 7.2 88 1021.7 11.4 SW 14.5 0.0 0.1
03:13 9.1 7.2 88 1021.5 11.4 SW 14.5 0.0 0.1
03:14 9.1 7.2 88 1021.9 11.4 SW 14.5 0.0 0.1
03:16 9.1 7.2 88 1021.4 11.4 SW 15.9 0.0 0.1
03:17 9.1 7.2 88 1021.7 14.5 SW 15.9 0.0 0.1
03:18 9.1 7.2 88 1021.8 14.5 SW 15.9 0.0 0.1
03:19 9.0 7.1 88 1021.7 16.8 WNW 16.8 0.0 0.1
03:20 9.0 7.1 88 1021.7 15.2 WNW 16.8 0.0 0.1
03:21 9.0 7.1 88 1021.7 15.2 S 16.8 0.0 0.1
03:22 9.0 7.1 88 1021.7 18.3 WNW 18.3 0.0 0.1
03:23 9.0 7.1 88 1021.7 12.1 W 18.3 0.0 0.1
03:24 9.0 7.1 88 1021.6 15.2 NW 18.3 0.0 0.1
03:25 9.0 7.1 88 1021.9 12.1 SW 18.3 0.0 0.1
03:26 9.0 7.1 88 1021.6 14.5 W 18.3 0.0 0.1
03:27 9.0 7.1 88 1021.7 14.5 W 18.3 0.0 0.1
03:28 9.0 7.1 88 1021.6 14.5 W 18.3 0.0 0.1
03:30 9.0 7.1 88 1021.7 12.1 W 18.3 0.0 0.1
03:31 9.0 7.1 88 1021.8 14.5 W 18.3 0.0 0.1
03:32 9.0 7.1 88 1021.7 14.5 W 15.2 0.0 0.1
03:33 9.0 7.0 87 1021.8 12.1 W 15.2 0.0 0.1
03:34 9.0 7.0 87 1022.0 12.1 W 14.5 0.0 0.1
03:35 9.0 7.0 87 1021.9 11.4 W 14.5 0.0 0.1
03:36 9.0 7.0 87 1021.9 11.4 W 14.5 0.0 0.1
03:37 9.0 7.0 87 1021.8 11.4 W 14.5 0.0 0.1
03:38 9.0 7.1 88 1021.8 11.4 W 14.5 0.0 0.1
03:39 9.0 7.1 88 1021.7 11.4 W 14.5 0.0 0.1
03:40 9.0 7.1 88 1021.8 16.8 W 16.8 0.0 0.1
03:41 9.0 7.1 88 1022.0 16.8 W 16.8 0.0 0.1
03:42 9.0 7.1 88 1021.7 16.8 W 16.8 0.0 0.1
03:44 9.0 7.1 88 1021.8 9.8 WSW 16.8 0.0 0.1
03:45 9.0 7.1 88 1021.6 9.8 WSW 16.8 0.0 0.1
03:46 9.0 7.1 88 1021.8 9.8 WSW 16.8 0.0 0.1
03:47 9.0 7.1 88 1021.5 9.8 WSW 16.8 0.0 0.1
03:48 9.0 7.1 88 1021.8 9.8 WSW 16.8 0.0 0.1
03:49 9.1 7.2 88 1021.9 14.5 NW 16.8 0.0 0.1
03:50 9.1 7.2 88 1021.7 17.4 W 17.4 0.0 0.1
03:51 9.1 7.2 88 1021.7 17.4 SW 17.4 0.0 0.1
03:52 9.1 7.2 88 1021.6 22.1 W 22.1 0.8 0.2
03:53 9.1 7.2 88 1021.6 16.8 W 22.1 0.8 0.2
03:54 9.1 7.2 88 1021.7 13.6 N 22.1 0.8 0.2
03:55 9.1 7.2 88 1021.7 19.0 W 22.1 0.8 0.2
03:56 9.1 7.2 88 1021.9 19.0 W 22.1 0.8 0.2
03:57 9.1 7.2 88 1021.8 13.6 W 22.1 0.0 0.2
03:59 9.1 7.2 88 1021.7 11.4 S 22.1 0.0 0.2
04:00 9.1 7.2 88 1021.7 16.8 NW 22.1 0.0 0.2
04:01 9.1 7.2 88 1021.8 16.8 NW 22.1 0.0 0.2
04:02 9.1 7.2 88 1021.7 16.8 NW 19.0 0.0 0.2
04:03 9.1 7.2 88 1022.0 16.8 NW 19.0 0.0 0.2
04:04 9.1 7.2 88 1022.0 16.8 NW 19.0 0.0 0.2
04:05 9.1 7.2 88 1021.6 16.8 NW 19.0 0.0 0.2
04:06 9.1 7.2 88 1021.6 12.1 NW 19.0 0.0 0.2
04:07 9.1 7.2 88 1021.7 12.1 NW 16.8 0.0 0.2
04:08 9.1 7.2 88 1021.4 12.1 NW 16.8 0.0 0.2
04:09 9.1 7.2 88 1021.7 12.1 SW 16.8 0.0 0.2
04:10 9.1 7.2 88 1021.5 14.5 SW 16.8 0.0 0.2
04:11 9.1 7.2 88 1021.6 15.2 W 16.8 0.0 0.2
04:13 9.1 7.2 88 1021.5 14.5 SW 16.8 0.0 0.2
04:14 9.1 7.2 88 1021.7 13.0 W 16.8 0.0 0.2
04:15 9.1 7.2 88 1021.3 13.0 W 15.2 0.0 0.2
04:16 9.1 7.2 88 1021.5 16.8 W 16.8 0.0 0.2
04:17 9.1 7.2 88 1021.5 16.8 W 16.8 0.0 0.2
04:18 9.1 7.2 88 1021.7 16.8 W 16.8 0.0 0.2
04:19 9.1 7.2 88 1021.3 16.8 W 16.8 0.0 0.2
04:20 9.1 7.2 88 1021.4 16.8 W 16.8 0.0 0.2
04:21 9.0 7.0 87 1021.5 15.2 W 16.8 0.0 0.2
04:22 9.0 7.0 87 1021.4 16.8 NW 16.8 0.0 0.2
04:23 9.0 7.0 87 1021.5 15.2 NW 16.8 0.0 0.2
04:24 9.0 7.0 87 1021.5 15.2 NW 16.8 0.0 0.2
04:25 9.0 7.0 87 1021.6 16.8 SW 19.7 0.0 0.2
04:27 9.0 7.0 87 1021.6 14.5 SW 19.7 0.0 0.2
04:28 9.0 7.0 87 1021.6 12.1 NW 19.7 0.0 0.2
04:29 9.0 7.0 87 1021.6 12.1 NW 19.7 0.0 0.2
04:30 9.0 7.0 87 1021.4 13.0 SW 19.7 0.0 0.2
04:31 9.0 7.0 87 1021.4 11.4 W 19.7 0.0 0.2
04:32 9.0 7.0 87 1021.4 11.4 W 19.7 0.0 0.2
04:33 9.0 7.0 87 1021.5 12.1 W 19.7 0.0 0.2
04:34 9.0 7.0 87 1021.4 13.0 W 19.7 0.0 0.2
04:35 9.0 7.0 87 1021.6 10.7 SW 16.8 0.0 0.2
04:36 9.0 7.0 87 1021.6 10.7 SW 16.8 0.0 0.2
04:37 9.0 7.0 87 1021.5 10.7 SW 15.2 0.0 0.2
04:38 8.9 6.9 87 1021.4 10.7 SW 14.5 0.0 0.2
04:39 8.9 6.9 87 1021.6 10.7 SW 13.6 0.0 0.2
04:41 8.9 6.9 87 1021.5 10.7 SW 13.0 0.0 0.2
04:42 8.9 6.9 87 1021.6 13.0 W 13.0 0.0 0.2
04:43 8.8 6.8 87 1021.5 13.0 W 13.0 0.0 0.2
04:44 8.8 6.8 87 1021.3 12.1 SW 13.0 0.0 0.2
04:45 8.8 6.8 87 1021.3 12.1 SW 13.0 0.0 0.2
04:46 8.8 6.8 87 1021.6 12.1 SW 13.0 0.0 0.2
04:47 8.8 6.8 87 1021.5 10.7 SW 13.0 0.0 0.2
04:48 8.8 6.8 87 1021.5 9.8 W 13.0 0.0 0.2
04:49 8.8 6.8 87 1021.6 9.8 W 13.0 0.0 0.2
04:50 8.8 6.8 87 1021.4 9.8 SW 13.0 0.0 0.2
04:51 8.8 6.8 87 1021.4 9.8 SW 13.0 0.0 0.2
04:52 8.8 6.8 87 1021.7 10.7 SW 13.0 0.0 0.2
04:54 8.8 6.8 87 1021.8 13.6 W 14.5 0.0 0.2
04:55 8.8 6.8 87 1021.4 13.6 W 14.5 0.0 0.2
04:56 8.9 6.9 87 1021.5 14.5 W 14.5 0.0 0.2
04:57 8.9 6.9 87 1021.7 14.5 W 14.5 0.0 0.2
04:58 8.9 6.9 87 1021.5 15.9 SW 15.9 0.0 0.2
04:59 8.9 6.9 87 1021.6 9.8 W 15.9 0.0 0.2
05:00 8.9 6.9 87 1021.6 9.8 W 15.9 0.0 0.2
05:01 8.9 6.9 87 1021.4 9.8 W 15.9 0.0 0.2
05:02 8.9 6.9 87 1021.4 9.8 W 15.9 0.0 0.2
05:03 8.9 6.9 87 1021.5 9.8 W 15.9 0.0 0.2
05:04 8.9 6.9 87 1021.6 9.8 W 15.9 0.0 0.2
05:05 8.9 6.9 87 1021.5 9.8 W 15.9 0.0 0.2
05:06 8.9 6.9 87 1021.6 9.8 W 15.9 0.0 0.2
05:07 8.9 6.9 87 1021.4 9.8 W 15.9 0.0 0.2
05:09 8.9 6.9 87 1021.5 15.2 SW 15.2 0.0 0.2
05:10 8.9 6.9 87 1021.4 15.2 SW 15.2 0.0 0.2
05:11 8.9 6.9 87 1021.5 12.1 W 15.2 0.0 0.2
05:12 8.9 6.9 87 1021.5 12.1 W 15.2 0.0 0.2
05:13 8.9 6.9 87 1021.6 12.1 W 15.2 0.0 0.2
05:14 8.9 6.9 87 1021.6 12.1 W 15.2 0.0 0.2
05:15 9.0 7.0 87 1021.7 14.5 SW 15.2 0.0 0.2
05:16 9.0 7.0 87 1021.5 10.7 SW 15.2 0.0 0.2
05:17 9.0 7.0 87 1021.5 14.5 SW 15.2 0.0 0.2
05:18 8.9 6.9 87 1021.6 15.9 W 18.3 0.0 0.2
05:19 9.0 7.0 87 1021.6 15.9 SW 18.3 0.0 0.2
05:20 9.0 7.0 87 1021.5 15.9 W 18.3 0.0 0.2
05:21 8.9 6.9 87 1021.6 13.6 NNW 18.3 0.0 0.2
05:23 8.9 6.9 87 1021.4 10.7 NW 18.3 0.0 0.2
05:24 8.9 6.9 87 1021.5 11.4 SW 18.3 0.0 0.2
05:25 8.9 6.9 87 1021.3 8.3 SW 18.3 0.0 0.2
05:26 8.8 6.8 87 1021.4 13.0 SW 18.3 0.0 0.2
05:27 8.8 6.8 87 1021.3 14.5 SW 18.3 0.0 0.2
05:28 8.8 6.8 87 1021.3 14.5 SW 15.9 0.0 0.2
05:29 8.8 6.8 87 1021.6 15.9 SW 15.9 0.0 0.2
05:30 8.8 6.8 87 1021.6 11.4 WSW 15.9 0.0 0.2
05:31 8.8 6.8 87 1021.5 11.4 SW 15.9 0.0 0.2
05:32 8.8 6.8 87 1021.5 8.3 SW 15.9 0.0 0.2
05:33 8.8 6.8 87 1021.6 9.8 SW 15.9 0.0 0.2
05:34 8.8 6.8 87 1021.5 13.0 W 15.9 0.0 0.2
05:35 8.8 6.8 87 1021.5 9.8 SW 15.9 0.0 0.2
05:37 8.8 6.8 87 1021.7 9.8 SW 15.9 0.0 0.2
05:38 8.8 6.8 87 1021.4 12.1 SW 15.9 0.0 0.2
05:39 8.8 6.8 87 1021.5 9.8 SW 13.6 0.0 0.2
05:40 8.8 6.8 87 1021.4 9.2 W 13.6 0.0 0.2
05:41 8.8 6.8 87 1021.6 9.8 SW 13.6 0.0 0.2
05:42 8.8 6.8 87 1021.5 11.4 SW 13.6 0.0 0.2
05:43 8.9 6.9 87 1021.4 10.7 W 13.6 0.0 0.2
05:44 8.9 6.9 87 1021.4 9.8 SW 13.6 0.0 0.2
05:45 8.9 6.9 87 1021.6 6.9 W 12.1 0.0 0.2
05:46 8.9 6.9 87 1021.5 10.7 SW 12.1 0.0 0.2
05:47 8.9 6.9 87 1021.7 9.8 NW 12.1 0.0 0.2
05:48 8.9 6.9 87 1021.7 9.8 SW 12.1 0.0 0.2
05:49 8.9 6.9 87 1021.6 10.7 SW 12.1 0.0 0.2
05:51 8.9 6.9 87 1021.6 10.7 W 12.1 0.0 0.2
05:52 8.9 6.9 87 1021.4 10.7 W 12.1 0.0 0.2
05:53 8.9 6.9 87 1021.4 10.7 SW 12.1 0.0 0.2
05:54 8.9 6.9 87 1021.3 9.8 SW 12.1 0.0 0.2
05:55 8.9 6.9 87 1021.6 9.2 SW 12.1 0.0 0.2
05:56 8.9 6.9 87 1021.6 9.2 SW 12.1 0.0 0.2
05:57 8.9 6.9 87 1021.4 8.3 W 12.1 0.0 0.2
05:58 8.9 6.9 87 1021.6 11.4 SW 12.1 0.0 0.2
05:59 8.9 6.9 87 1021.7 9.8 W 12.1 0.0 0.2
06:00 8.9 6.9 87 1021.4 9.8 W 11.4 0.0 0.2
06:01 8.9 6.9 87 1021.5 9.2 W 11.4 0.0 0.2
06:02 8.9 6.9 87 1021.5 10.7 SW 11.4 0.0 0.2
06:03 8.9 6.9 87 1021.5 9.2 SW 11.4 0.0 0.2
06:05 8.9 6.9 87 1021.7 11.4 S 11.4 0.0 0.2
06:06 8.9 6.9 87 1021.9 12.1 WSW 12.1 0.0 0.2
06:07 9.0 7.0 87 1021.6 11.4 SW 12.1 0.0 0.2
06:08 9.0 7.0 87 1021.7 13.0 SW 13.0 0.0 0.2
06:09 9.0 7.0 87 1021.7 9.8 W 13.0 0.0 0.2
06:10 9.0 7.0 87 1021.7 8.3 W 13.0 0.0 0.2
06:11 9.0 7.0 87 1021.7 12.1 W 13.0 0.0 0.2
06:12 9.0 7.0 87 1021.6 14.5 W 14.5 0.0 0.2
06:13 9.0 7.0 87 1021.9 14.5 SW 14.5 0.0 0.2
06:14 9.0 7.0 87 1021.5 15.9 SW 15.9 0.0 0.2
06:15 9.0 7.0 87 1021.7 15.9 W 15.9 0.0 0.2
06:16 9.0 7.0 87 1021.7 15.9 W 15.9 0.0 0.2
06:17 9.0 7.0 87 1021.7 12.1 SW 15.9 0.0 0.2
06:19 8.9 6.9 87 1021.6 14.5 W 15.9 0.0 0.2
06:20 8.9 6.9 87 1021.8 14.5 W 15.9 0.0 0.2
06:21 9.0 7.0 87 1021.6 12.1 W 15.9 0.0 0.2
06:22 8.9 6.9 87 1021.5 12.1 NW 15.9 0.0 0.2
06:23 8.9 6.9 87 1021.7 13.6 SW 15.9 0.0 0.2
06:24 8.9 6.9 87 1021.7 12.1 SW 15.9 0.0 0.2
06:25 8.9 6.9 87 1021.7 12.1 SW 15.9 0.0 0.2
06:26 8.9 6.9 87 1021.7 13.0 SW 15.9 0.0 0.2
06:27 8.9 6.9 87 1021.7 9.8 W 14.5 0.0 0.2
06:28 8.9 6.9 87 1021.7 11.4 NW 14.5 0.0 0.2
06:29 8.9 6.9 87 1021.5 13.0 SW 14.5 0.0 0.2
06:30 8.9 6.9 87 1021.6 9.8 W 14.5 0.0 0.2
06:31 8.9 6.9 87 1021.7 9.8 W 13.6 0.0 0.2
06:33 8.9 6.7 86 1021.7 13.6 W 13.6 0.0 0.2
06:34 8.9 6.7 86 1021.5 9.2 W 13.6 0.0 0.2
06:35 8.9 6.7 86 1021.7 12.1 SW 13.6 0.0 0.2
06:36 8.9 6.7 86 1021.6 13.0 W 13.6 0.0 0.2
06:37 8.9 6.7 86 1021.6 11.4 W 13.6 0.0 0.2
06:38 8.9 6.7 86 1021.6 8.3 S 13.6 0.0 0.2
06:39 8.9 6.7 86 1021.6 15.9 WNW 15.9 0.0 0.2
06:40 8.9 6.7 86 1021.6 12.1 W 15.9 0.0 0.2
06:41 8.9 6.7 86 1021.7 13.0 W 15.9 0.0 0.2
06:42 8.9 6.7 86 1021.7 12.1 W 15.9 0.0 0.2
06:43 8.9 6.7 86 1021.7 12.1 NW 15.9 0.0 0.2
06:44 8.9 6.7 86 1021.7 11.4 W 15.9 0.0 0.2
06:45 8.9 6.7 86 1021.4 12.1 W 15.9 0.0 0.2
06:47 8.9 6.7 86 1021.7 13.6 SW 15.9 0.0 0.2
06:48 8.9 6.7 86 1021.7 13.0 W 15.9 0.0 0.2
06:49 8.9 6.7 86 1021.6 12.1 W 13.6 0.0 0.2
06:50 8.9 6.7 86 1021.7 11.4 W 13.6 0.0 0.2
06:51 8.9 6.7 86 1021.6 13.6 W 13.6 0.0 0.3
06:52 8.9 6.7 86 1021.5 13.6 WSW 13.6 0.8 0.3
06:53 8.9 6.7 86 1021.5 13.6 WSW 13.6 0.8 0.3
06:54 8.9 6.7 86 1021.7 12.1 SW 13.6 0.8 0.3
06:55 8.9 6.7 86 1021.5 13.6 SW 13.6 0.8 0.3
06:56 8.9 6.7 86 1021.6 10.7 SW 13.6 0.8 0.3
06:57 8.9 6.7 86 1021.7 8.3 SW 13.6 0.0 0.3
06:58 8.9 6.7 86 1021.8 9.2 SW 13.6 0.0 0.3
06:59 8.9 6.7 86 1021.8 12.1 SW 13.6 0.0 0.3
07:00 8.9 6.7 86 1021.7 9.2 W 13.6 0.0 0.3
07:02 8.9 6.7 86 1021.8 9.2 W 13.6 0.0 0.3
07:03 8.9 6.7 86 1021.9 9.2 W 13.6 0.0 0.3
07:04 8.9 6.7 86 1021.9 9.2 W 13.6 0.0 0.3
07:05 8.9 6.7 86 1021.9 9.2 W 12.1 0.0 0.3
07:06 8.9 6.7 86 1021.8 9.2 W 12.1 0.0 0.3
07:07 8.9 6.7 86 1021.7 8.3 W 12.1 0.0 0.3
07:08 8.9 6.7 86 1021.8 13.0 SW 13.0 0.0 0.3
07:09 8.9 6.7 86 1021.8 13.0 SW 13.0 0.0 0.3
07:10 8.9 6.7 86 1021.8 12.1 SW 13.0 0.0 0.3
07:11 8.9 6.7 86 1021.7 9.8 W 13.0 0.0 0.3
07:12 8.9 6.7 86 1021.7 15.9 SW 15.9 0.0 0.3
07:13 8.8 6.6 86 1021.9 15.9 WSW 15.9 0.0 0.3
07:14 8.9 6.7 86 1021.9 13.6 SW 15.9 0.0 0.3
07:16 8.9 6.7 86 1021.9 12.1 NW 15.9 0.0 0.3
07:17 8.8 6.6 86 1021.8 10.7 SW 15.9 0.0 0.3
07:18 8.8 6.6 86 1022.1 10.7 W 15.9 0.0 0.3
07:19 8.8 6.6 86 1021.9 13.6 S 15.9 0.0 0.3
07:20 8.8 6.6 86 1021.6 15.2 W 15.9 0.0 0.3
07:21 8.8 6.6 86 1021.6 15.2 W 15.9 0.0 0.3
07:22 8.8 6.6 86 1021.9 9.2 SW 15.9 0.0 0.3
07:23 8.8 6.6 86 1021.9 9.8 SW 15.2 0.0 0.3
07:24 8.8 6.6 86 1021.6 11.4 W 15.2 0.0 0.3
07:25 8.8 6.6 86 1022.0 9.8 NW 15.2 0.0 0.3
07:26 8.8 6.6 86 1021.8 10.7 SW 15.2 0.0 0.3
07:27 8.8 6.6 86 1021.9 13.0 W 15.2 0.0 0.3
07:29 8.8 6.6 86 1021.7 9.8 WSW 15.2 0.0 0.3
07:30 8.8 6.6 86 1021.9 10.7 WNW 15.2 0.0 0.3
07:31 8.8 6.6 86 1021.9 9.8 SW 13.0 0.0 0.3
07:32 8.8 6.6 86 1021.8 11.4 W 13.0 0.0 0.3
07:33 8.8 6.6 86 1021.8 11.4 WSW 13.0 0.0 0.3
07:34 8.8 6.6 86 1022.0 9.8 NW 13.0 0.0 0.3
07:35 8.8 6.6 86 1021.8 12.1 W 13.0 0.0 0.3
07:36 8.8 6.6 86 1021.9 8.3 W 13.0 0.0 0.3
07:37 8.8 6.6 86 1022.0 10.7 SW 13.0 0.0 0.3
07:38 8.8 6.6 86 1021.9 9.8 W 13.0 0.0 0.3
07:39 8.8 6.6 86 1022.1 11.4 W 12.1 0.0 0.3
07:40 8.8 6.6 86 1022.0 13.0 SW 13.0 0.0 0.3
07:41 8.8 6.6 86 1021.8 13.0 W 13.0 0.0 0.3
07:42 8.8 6.6 86 1022.1 19.7 W 19.7 0.0 0.3
07:44 8.8 6.6 86 1021.9 15.2 NW 19.7 0.0 0.3
07:45 8.8 6.6 86 1021.9 13.0 NW 19.7 0.0 0.3
07:46 8.9 6.7 86 1022.1 9.8 NW 19.7 0.0 0.3
07:47 8.9 6.7 86 1022.1 12.1 SW 19.7 0.0 0.3
07:48 8.9 6.7 86 1022.0 15.2 SW 19.7 0.0 0.3
07:49 8.9 6.7 86 1022.0 15.2 SW 19.7 0.0 0.3
07:50 8.9 6.7 86 1021.9 9.8 SW 19.7 0.0 0.3
07:51 8.9 6.7 86 1021.9 9.2 SW 19.7 0.0 0.3
07:52 8.9 6.7 86 1021.8 8.3 W 19.7 0.0 0.3
07:53 8.9 6.7 86 1022.1 9.8 W 15.2 0.0 0.3
07:54 8.9 6.7 86 1021.9 11.4 W 15.2 0.0 0.3
07:55 8.9 6.7 86 1022.1 8.3 SW 15.2 0.0 0.3
07:56 8.8 6.6 86 1022.0 10.7 SW 15.2 0.0 0.3
07:58 8.8 6.6 86 1022.1 8.3 W 15.2 0.0 0.3
07:59 8.9 6.7 86 1021.8 9.8 SW 15.2 0.0 0.3
08:00 8.8 6.6 86 1021.9 8.3 SW 13.0 0.0 0.3
08:01 8.9 6.7 86 1022.0 9.8 W 13.0 0.0 0.3
08:02 8.8 6.6 86 1021.7 9.2 W 13.0 0.0 0.3
08:03 8.8 6.6 86 1021.8 8.3 SW 13.0 0.0 0.3
08:04 8.8 6.6 86 1021.6 10.7 WSW 13.0 0.0 0.3
08:05 8.8 6.6 86 1022.0 9.2 W 10.7 0.0 0.3
08:06 8.9 6.7 86 1021.9 12.1 W 13.0 0.0 0.3
08:07 8.8 6.6 86 1022.0 11.4 SW 13.0 0.0 0.3
08:08 8.8 6.6 86 1021.9 15.2 SW 15.2 0.0 0.3
08:09 8.8 6.6 86 1022.0 15.2 SW 15.2 0.0 0.3
08:10 8.8 6.6 86 1022.1 12.1 SW 15.2 0.0 0.3
08:12 8.9 6.7 86 1022.0 9.8 NW 15.2 0.0 0.3
08:13 8.9 6.7 86 1021.9 10.7 W 15.2 0.0 0.3
08:14 8.9 6.7 86 1022.0 10.7 W 15.2 0.0 0.3
08:15 8.9 6.7 86 1022.3 9.2 W 15.2 0.0 0.3
08:16 8.9 6.7 86 1022.1 9.2 SW 15.2 0.0 0.3
08:17 8.9 6.7 86 1022.1 9.2 SW 15.2 0.0 0.3
08:18 8.9 6.7 86 1021.9 8.3 W 15.2 0.0 0.3
08:19 8.9 6.7 86 1021.8 7.6 SW 15.2 0.0 0.3
08:20 8.9 6.7 86 1022.0 9.2 WSW 12.1 0.0 0.3
08:21 8.9 6.7 86 1021.9 9.2 NW 12.1 0.0 0.3
08:22 8.9 6.7 86 1022.1 10.7 W 13.0 0.0 0.3
08:23 8.9 6.7 86 1022.1 8.3 SW 13.0 0.0 0.3
08:24 8.9 6.7 86 1022.3 8.3 W 13.0 0.0 0.3
08:26 8.9 6.7 86 1022.2 7.6 SW 13.0 0.0 0.3
08:27 8.9 6.7 86 1022.3 7.6 SW 13.0 0.0 0.3
08:28 8.9 6.7 86 1022.1 11.4 SW 13.0 0.0 0.3
08:29 8.9 6.7 86 1021.9 12.1 SW 13.0 0.0 0.3
08:30 8.9 6.7 86 1022.1 11.4 W 13.0 0.0 0.3
08:31 8.9 6.7 86 1022.0 6.9 SW 13.0 0.0 0.3
08:32 9.0 6.8 86 1022.2 6.9 SW 12.1 0.0 0.3
08:33 9.0 6.8 86 1022.2 7.6 SW 12.1 0.0 0.3
08:34 9.0 6.8 86 1022.1 9.2 SW 12.1 0.0 0.3
08:35 9.0 6.8 86 1021.9 5.4 SW 12.1 0.0 0.3
08:36 9.0 6.8 86 1022.2 6.0 WSW 12.1 0.0 0.3
08:37 9.0 6.8 86 1022.1 7.6 SW 12.1 0.0 0.3
08:38 9.0 6.8 86 1022.0 8.3 SW 12.1 0.0 0.3
08:40 9.0 6.8 86 1022.2 6.9 SW 9.2 0.0 0.3
08:41 9.0 6.8 86 1022.1 11.4 WSW 11.4 0.0 0.3
08:42 9.0 6.8 86 1022.4 11.4 SW 11.4 0.0 0.3
08:43 9.0 6.8 86 1022.1 8.3 SW 11.4 0.0 0.3
08:44 9.0 6.8 86 1022.1 13.6 SW 13.6 0.0 0.3
08:45 9.0 6.8 86 1022.1 13.6 SW 13.6 0.0 0.3
08:46 9.0 6.8 86 1022.2 10.7 SW 13.6 0.0 0.3
08:47 9.0 6.8 86 1022.3 8.3 SW 13.6 0.0 0.3
08:48 9.0 6.8 86 1022.2 10.7 SW 13.6 0.0 0.3
08:49 9.0 6.6 85 1022.1 10.7 W 13.6 0.0 0.3
08:50 9.0 6.6 85 1022.4 10.7 W 13.6 0.0 0.3
08:51 9.0 6.6 85 1022.5 8.3 WSW 13.6 0.0 0.3
08:52 9.0 6.6 85 1022.3 11.4 SW 13.6 0.0 0.3
08:54 9.1 6.7 85 1022.2 8.3 SW 13.6 0.0 0.3
08:55 9.1 6.7 85 1022.5 12.1 SW 12.1 0.0 0.3
08:56 9.1 6.7 85 1022.4 9.8 SW 12.1 0.0 0.3
08:57 9.1 6.7 85 1022.3 7.6 WSW 12.1 0.0 0.3
08:58 9.1 6.7 85 1022.4 7.6 SW 12.1 0.0 0.3
08:59 9.1 6.7 85 1022.2 9.2 W 12.1 0.0 0.3
09:00 9.1 6.7 85 1022.3 9.2 SW 12.1 0.0 0.3
09:01 9.1 6.7 85 1022.4 9.2 SW 12.1 0.0 0.3
09:02 9.1 6.7 85 1022.5 9.2 SW 12.1 0.0 0.3
09:03 9.1 6.7 85 1022.4 9.2 SW 12.1 0.0 0.3
09:04 9.1 6.7 85 1022.3 9.2 SW 12.1 0.0 0.3
09:05 9.1 6.7 85 1022.7 9.2 SW 12.1 0.0 0.3
09:06 9.1 6.7 85 1022.4 8.3 SW 11.4 0.0 0.3
09:08 9.1 6.7 85 1022.7 11.4 SW 11.4 0.0 0.3
09:09 9.1 6.7 85 1022.4 12.1 SW 12.1 0.0 0.3
09:10 9.1 6.7 85 1022.3 9.8 SW 12.1 0.0 0.3
09:11 9.1 6.7 85 1022.4 7.6 SW 12.1 0.0 0.3
09:12 9.1 6.7 85 1022.3 10.7 SSW 12.1 0.0 0.3
09:13 9.1 6.7 85 1022.4 8.3 SW 12.1 0.0 0.3
09:14 9.1 6.7 85 1022.4 8.3 SW 12.1 0.0 0.3
09:15 9.2 6.8 85 1022.3 12.1 W 12.1 0.0 0.3
09:16 9.2 6.8 85 1022.5 9.8 SW 12.1 0.0 0.3
09:17 9.2 6.8 85 1022.3 9.8 W 12.1 0.0 0.3
09:18 9.2 6.8 85 1022.5 7.6 SW 12.1 0.0 0.3
09:19 9.2 6.8 85 1022.5 8.3 W 12.1 0.0 0.3
09:20 9.2 6.8 85 1022.3 6.9 SW 12.1 0.0 0.3
09:22 9.2 6.8 85 1022.5 9.8 W 12.1 0.0 0.3
09:23 9.2 6.8 85 1022.5 8.3 SW 12.1 0.0 0.3
09:24 9.2 6.8 85 1022.5 13.6 SW 13.6 0.0 0.3
09:25 9.2 6.8 85 1022.6 12.1 SW 13.6 0.0 0.3
09:26 9.2 6.8 85 1022.5 10.7 SW 13.6 0.0 0.3
09:27 9.3 6.9 85 1022.7 10.7 SW 13.6 0.0 0.3
09:28 9.3 6.9 85 1022.7 9.2 W 13.6 0.0 0.3
09:29 9.3 6.9 85 1022.4 7.6 SW 13.6 0.0 0.3
09:30 9.3 6.9 85 1022.3 10.7 SW 13.6 0.0 0.3
09:31 9.3 6.9 85 1022.6 12.1 SW 13.6 0.0 0.3
09:32 9.3 6.9 85 1022.6 9.2 W 13.6 0.0 0.3
09:33 9.3 6.9 85 1022.4 10.7 SW 13.6 0.0 0.3
09:34 9.3 6.9 85 1022.6 10.7 SW 13.6 0.0 0.3
09:36 9.3 6.9 85 1022.4 9.8 SW 12.1 0.0 0.3
09:37 9.3 6.9 85 1022.5 10.7 NW 12.1 0.0 0.3
09:38 9.3 6.9 85 1022.5 11.4 W 12.1 0.0 0.3
09:39 9.3 6.9 85 1022.4 9.8 SW 12.1 0.0 0.3
09:40 9.3 6.9 85 1022.6 10.7 W 12.1 0.0 0.3
09:41 9.3 6.9 85 1022.5 7.6 SW 11.4 0.0 0.3
09:42 9.3 6.9 85 1022.4 7.6 W 11.4 0.0 0.3
09:43 9.3 6.9 85 1022.4 8.3 SW 11.4 0.0 0.3
09:44 9.3 6.9 85 1022.5 11.4 SW 11.4 0.0 0.3
09:45 9.3 6.9 85 1022.5 11.4 W 11.4 0.0 0.3
09:46 9.3 6.9 85 1022.5 6.9 SW 11.4 0.0 0.3
09:47 9.3 6.9 85 1022.4 7.6 W 11.4 0.0 0.3
09:48 9.3 6.9 85 1022.5 9.8 W 11.4 0.0 0.3
09:50 9.3 6.9 85 1022.6 9.8 SW 11.4 0.0 0.3
09:51 9.3 6.9 85 1022.6 9.2 SW 11.4 0.0 0.3
09:52 9.3 6.9 85 1022.5 7.6 W 11.4 0.0 0.3
09:53 9.3 6.9 85 1022.5 8.3 W 11.4 0.0 0.3
09:54 9.3 6.9 85 1022.4 11.4 SW 11.4 0.0 0.3
09:55 9.4 7.0 85 1022.8 10.7 SW 11.4 0.0 0.3
09:56 9.4 7.0 85 1022.6 8.3 W 11.4 0.0 0.3
09:57 9.4 7.0 85 1022.6 9.2 SW 11.4 0.0 0.3
09:58 9.4 7.0 85 1022.7 12.1 SW 12.1 0.0 0.3
09:59 9.4 7.0 85 1022.4 8.3 SW 12.1 0.0 0.3
10:00 9.4 7.0 85 1022.7 9.2 NNW 12.1 0.0 0.3
10:01 9.4 7.0 85 1022.6 9.2 NNW 12.1 0.0 0.3
10:02 9.4 7.0 85 1022.5 9.2 NNW 12.1 0.0 0.3
10:03 9.4 7.0 85 1022.5 9.2 NNW 12.1 0.0 0.3
10:04 9.4 7.0 85 1022.6 9.2 NNW 12.1 0.0 0.3
10:06 9.4 7.0 85 1022.6 8.3 SW 12.1 0.0 0.3
10:07 9.4 7.0 85 1022.5 7.6 SW 12.1 0.0 0.3
10:08 9.5 7.1 85 1022.7 13.0 SW 13.0 0.0 0.3
10:09 9.5 7.1 85 1022.5 13.0 SW 13.0 0.0 0.3
10:10 9.5 7.1 85 1022.6 12.1 SW 13.0 0.0 0.3
10:11 9.5 7.1 85 1022.5 10.7 SW 13.0 0.0 0.3
10:12 9.5 7.1 85 1022.7 11.4 W 13.0 0.0 0.3
10:13 9.5 7.1 85 1022.6 11.4 SW 13.0 0.0 0.3
10:14 9.5 7.1 85 1022.6 13.6 WSW 13.6 0.0 0.3
10:15 9.5 7.1 85 1022.8 11.4 W 13.6 0.0 0.3
10:16 9.5 7.1 85 1022.6 15.9 W 15.9 0.0 0.3
10:17 9.5 7.1 85 1022.9 13.6 SW 15.9 0.0 0.3
10:19 9.5 7.1 85 1022.6 7.6 SW 15.9 0.0 0.3
10:20 9.5 7.1 85 1022.7 12.1 SW 15.9 0.0 0.3
10:21 9.5 7.1 85 1022.7 9.8 SW 15.9 0.0 0.3
10:22 9.5 7.1 85 1022.7 11.4 SW 15.9 0.0 0.3
10:23 9.5 7.1 85 1022.7 11.4 W 15.9 0.0 0.3
10:24 9.5 7.1 85 1022.8 13.6 SW 15.9 0.0 0.3
10:25 9.5 7.1 85 1022.8 13.6 SW 15.9 0.0 0.3
10:26 9.5 7.1 85 1022.9 9.8 SW 15.9 0.0 0.3
10:27 9.5 7.1 85 1022.8 13.0 W 13.6 0.8 0.3
10:28 9.5 7.1 85 1022.8 8.3 SW 13.6 0.8 0.3
10:29 9.5 7.1 85 1023.0 12.1 SW 13.6 0.8 0.3
10:30 9.5 7.1 85 1022.8 15.9 SW 15.9 0.8 0.3
10:31 9.6 7.2 85 1022.8 12.1 SW 15.9 0.8 0.3
10:32 9.6 7.2 85 1022.8 11.4 W 15.9 0.0 0.3
10:33 9.6 7.2 85 1022.8 11.4 SW 15.9 0.0 0.3
10:34 9.6 7.2 85 1022.9 15.9 W 15.9 0.0 0.3
10:36 9.6 7.2 85 1022.8 11.4 SW 15.9 0.0 0.3
10:37 9.6 7.2 85 1023.0 10.7 W 15.9 0.0 0.3
10:38 9.6 7.2 85 1022.8 15.2 W 15.9 0.0 0.3
10:39 9.6 7.2 85 1022.9 13.0 W 15.9 0.0 0.3
10:40 9.6 7.2 85 1022.7 9.2 SW 15.9 0.0 0.3
10:41 9.6 7.2 85 1022.7 9.2 W 15.9 0.0 0.3
10:42 9.6 7.2 85 1022.8 13.0 W 15.9 0.0 0.3
10:43 9.6 7.2 85 1022.8 9.8 W 15.9 0.0 0.3
10:44 9.6 7.2 85 1022.7 9.8 W 15.9 0.0 0.3
10:45 9.6 7.2 85 1022.7 11.4 W 15.2 0.0 0.3
10:46 9.6 7.2 85 1022.7 14.5 W 15.2 0.0 0.3
10:47 9.6 7.2 85 1022.6 11.4 SW 15.2 0.0 0.3
10:48 9.7 7.3 85 1022.6 14.5 W 15.2 0.0 0.3
10:49 9.7 7.3 85 1022.6 10.7 SW 14.5 0.0 0.3
10:51 9.7 7.3 85 1022.5 14.5 SW 15.2 0.0 0.3
10:52 9.7 7.3 85 1022.7 12.1 WSW 15.2 0.0 0.3
10:53 9.7 7.3 85 1022.6 14.5 SW 15.2 0.0 0.3
10:54 9.7 7.3 85 1022.6 13.6 W 15.2 0.0 0.3
10:55 9.7 7.3 85 1022.9 13.0 SW 15.2 0.0 0.3
10:56 9.7 7.3 85 1022.6 12.1 W 15.2 0.0 0.3
10:57 9.7 7.3 85 1022.7 13.6 W 15.2 0.0 0.3
10:58 9.7 7.3 85 1022.7 9.8 SW 15.2 0.0 0.3
10:59 9.7 7.3 85 1022.5 11.4 SW 15.2 0.0 0.3
11:00 9.7 7.3 85 1022.7 12.1 W 15.2 0.0 0.3
11:01 9.7 7.3 85 1022.8 12.1 W 14.5 0.0 0.3
11:02 9.7 7.3 85 1022.8 12.1 W 14.5 0.0 0.3
11:05 9.7 7.3 85 1022.6 15.2 W 15.2 0.0 0.3
11:06 9.7 7.3 85 1022.7 13.6 SW 15.2 0.0 0.3
11:07 9.8 7.4 85 1022.5 13.6 SW 15.2 0.0 0.3
11:08 9.8 7.4 85 1022.6 10.7 W 15.2 0.0 0.3
11:09 9.8 7.4 85 1022.6 10.7 W 15.2 0.0 0.3
11:10 9.7 7.3 85 1022.7 10.7 W 15.2 0.0 0.3
11:11 9.7 7.3 85 1022.6 13.6 SW 15.2 0.0 0.3
11:12 9.7 7.3 85 1022.6 13.6 W 15.2 0.0 0.3
11:13 9.7 7.3 85 1022.6 11.4 W 15.2 0.0 0.3
11:14 9.7 7.3 85 1022.8 11.4 SW 15.2 0.0 0.3
11:15 9.7 7.3 85 1022.8 10.7 W 15.2 0.0 0.3
11:16 9.7 7.3 85 1022.5 14.5 SW 14.5 0.0 0.3
11:17 9.7 7.3 85 1022.5 14.5 SW 14.5 0.0 0.3
11:18 9.7 7.3 85 1022.7 16.8 W 16.8 0.0 0.3
11:19 9.7 7.3 85 1022.7 15.9 SW 16.8 0.0 0.3
11:20 9.7 7.3 85 1022.7 14.5 W 16.8 0.0 0.3
11:21 9.7 7.3 85 1022.6 11.4 SW 16.8 0.0 0.3
11:22 9.7 7.3 85 1022.6 10.7 SW 16.8 0.0 0.3
11:23 9.7 7.3 85 1022.7 11.4 SW 16.8 0.0 0.3
11:24 9.7 7.3 85 1022.8 9.2 SW 16.8 0.0 0.3
11:25 9.7 7.3 85 1022.6 9.2 W 16.8 0.0 0.3
11:27 9.8 7.4 85 1022.6 16.8 SW 16.8 0.0 0.3
11:28 9.8 7.4 85 1022.7 12.1 SSW 16.8 0.0 0.3
11:29 9.8 7.4 85 1022.5 12.1 SW 16.8 0.0 0.3
11:30 9.8 7.6 86 1022.5 11.4 W 16.8 0.0 0.3
11:31 9.8 7.6 86 1022.5 11.4 NW 16.8 0.0 0.3
11:32 9.8 7.6 86 1022.6 15.9 W 16.8 0.0 0.3
11:33 9.8 7.6 86 1022.6 15.9 W 16.8 0.0 0.3
11:34 9.8 7.6 86 1022.6 15.9 W 16.8 0.0 0.3
11:35 9.8 7.6 86 1022.6 12.1 SSW 16.8 0.0 0.3
11:36 9.8 7.6 86 1022.5 12.1 W 16.8 0.0 0.3
11:37 9.8 7.6 86 1022.5 13.6 W 16.8 0.0 0.3
11:38 9.9 7.7 86 1022.5 12.1 SW 15.9 0.0 0.3
11:39 9.9 7.7 86 1022.4 10.7 SW 15.9 0.0 0.3
11:41 9.9 7.7 86 1022.5 8.3 SW 15.9 0.0 0.3
11:42 9.9 7.7 86 1022.5 11.4 SW 15.9 0.0 0.3
11:43 10.0 7.8 86 1022.6 11.4 W 15.9 0.0 0.3
11:44 10.0 7.8 86 1022.5 12.1 SW 13.6 0.0 0.3
11:45 10.0 7.8 86 1022.4 14.5 SW 14.5 0.0 0.3
11:46 10.0 7.8 86 1022.4 9.8 SW 14.5 0.0 0.3
11:47 10.0 7.8 86 1022.4 12.1 SW 14.5 0.0 0.3
11:48 10.0 7.8 86 1022.2 15.2 W 15.2 0.0 0.3
11:49 10.0 7.8 86 1022.4 16.8 SW 16.8 0.0 0.3
11:50 10.0 7.8 86 1022.3 12.1 SW 16.8 0.0 0.3
11:51 10.0 7.8 86 1022.5 15.9 SW 16.8 0.0 0.3
11:52 10.0 7.8 86 1022.2 15.9 W 16.8 0.0 0.3
11:53 10.0 7.8 86 1022.6 16.8 W 16.8 0.0 0.3
11:55 10.0 7.8 86 1022.5 10.7 W 16.8 0.0 0.3
11:56 10.0 7.8 86 1022.4 13.6 W 16.8 0.0 0.3
11:57 10.0 7.8 86 1022.6 18.3 SW 18.3 0.0 0.3
11:58 10.0 7.8 86 1022.4 18.3 W 18.3 0.0 0.3
11:59 10.0 7.8 86 1022.4 13.6 W 18.3 0.0 0.3
12:00 10.0 7.8 86 1022.3 13.6 SW 18.3 0.0 0.3
12:01 10.0 7.8 86 1022.3 13.6 SW 18.3 0.0 0.3
12:02 10.0 7.8 86 1022.4 13.6 SW 18.3 0.0 0.3
12:03 10.0 7.6 85 1022.3 13.6 SW 18.3 0.0 0.3
12:04 10.0 7.6 85 1022.5 12.1 W 18.3 0.0 0.3
12:05 10.0 7.6 85 1022.3 12.1 W 18.3 0.0 0.3
12:06 10.0 7.6 85 1022.4 15.9 SW 18.3 0.0 0.3
12:07 10.0 7.6 85 1022.3 17.4 W 18.3 0.0 0.3
12:08 10.0 7.6 85 1022.5 15.2 SW 18.3 0.0 0.3
12:09 10.0 7.6 85 1022.4 20.6 SW 20.6 0.0 0.3
12:11 9.9 7.5 85 1022.4 15.9 SW 20.6 0.0 0.3
12:12 9.9 7.5 85 1022.4 9.2 W 20.6 0.0 0.3
12:13 9.9 7.5 85 1022.5 8.3 W 20.6 0.0 0.3
12:14 9.9 7.5 85 1022.3 11.4 SW 20.6 0.0 0.3
12:15 9.9 7.5 85 1022.4 14.5 W 20.6 0.0 0.3
12:16 9.9 7.5 85 1022.2 14.5 W 20.6 0.0 0.3
12:17 9.9 7.5 85 1022.3 11.4 W 20.6 0.0 0.3
12:18 9.9 7.5 85 1022.2 16.8 SW 20.6 0.0 0.3
12:19 9.9 7.5 85 1022.2 13.6 SW 20.6 0.0 0.3
12:20 9.9 7.5 85 1022.1 12.1 SW 16.8 0.0 0.3
12:21 9.9 7.5 85 1022.2 13.0 WSW 16.8 0.0 0.3
12:22 9.9 7.5 85 1022.1 11.4 SW 16.8 0.0 0.3
12:23 9.9 7.5 85 1022.4 13.0 WSW 16.8 0.0 0.3
12:24 9.9 7.5 85 1022.3 9.8 NW 16.8 0.0 0.3
12:26 10.0 7.6 85 1022.1 14.5 WSW 16.8 0.0 0.3
12:27 10.0 7.6 85 1021.9 9.8 SW 16.8 0.0 0.3
12:28 10.0 7.6 85 1022.0 13.0 W 16.8 0.0 0.3
12:29 10.0 7.6 85 1022.2 13.0 SW 14.5 0.0 0.3
12:30 10.0 7.6 85 1022.3 9.8 SW 14.5 0.0 0.3
12:31 10.0 7.6 85 1022.2 15.2 SW 15.2 0.0 0.3
12:32 10.0 7.6 85 1022.2 14.5 W 15.2 0.0 0.3
12:33 10.0 7.6 85 1021.9 12.1 SW 15.2 0.0 0.3
12:34 10.0 7.6 85 1021.9 12.1 SW 15.2 0.0 0.3
12:35 10.0 7.6 85 1022.2 9.2 W 15.2 0.0 0.3
12:36 10.0 7.6 85 1022.3 10.7 W 15.2 0.0 0.3
12:37 10.0 7.6 85 1022.1 18.3 SW 18.3 0.8 0.4
12:38 10.0 7.6 85 1022.0 12.1 SW 18.3 0.8 0.4
12:39 10.0 7.6 85 1022.0 12.1 SW 18.3 0.8 0.4
12:40 10.0 7.6 85 1022.3 12.1 SW 18.3 0.8 0.4
12:41 10.0 7.6 85 1022.0 11.4 SW 18.3 0.8 0.4
12:42 10.0 7.6 85 1021.9 22.1 W 22.1 0.0 0.4
12:44 10.0 7.6 85 1022.0 11.4 SW 22.1 0.0 0.4
12:45 10.0 7.6 85 1022.1 18.3 W 22.1 0.0 0.4
12:46 10.0 7.6 85 1022.2 18.3 NW 22.1 0.0 0.4
12:47 10.0 7.6 85 1021.9 16.8 W 22.1 0.0 0.4
12:48 10.0 7.6 85 1022.1 15.2 SW 22.1 0.0 0.4
12:49 10.0 7.6 85 1022.0 11.4 W 22.1 0.0 0.4
12:50 10.0 7.6 85 1021.7 11.4 W 22.1 0.0 0.4
12:51 10.0 7.6 85 1022.0 13.0 SW 22.1 0.0 0.4
12:52 10.0 7.6 85 1021.8 13.0 SW 22.1 0.0 0.4
12:53 10.0 7.6 85 1022.0 14.5 SW 22.1 0.0 0.4
12:54 10.0 7.6 85 1022.0 14.5 SW 18.3 0.0 0.4
12:55 10.0 7.6 85 1022.0 10.7 SW 18.3 0.0 0.4
12:56 10.0 7.6 85 1022.0 10.7 WNW 18.3 0.0 0.4
12:58 10.1 7.7 85 1021.9 13.0 SW 15.2 0.0 0.4
12:59 10.1 7.7 85 1021.8 10.7 SW 14.5 0.0 0.4
13:00 10.1 7.5 84 1021.9 13.6 SW 14.5 0.0 0.4
13:01 10.1 7.5 84 1021.9 13.6 SW 14.5 0.0 0.4
13:02 10.1 7.5 84 1021.8 13.6 SW 14.5 0.0 0.4
13:03 10.1 7.5 84 1021.9 13.6 SW 14.5 0.0 0.4
13:04 10.1 7.5 84 1021.7 13.6 SW 14.5 0.0 0.4
13:05 10.1 7.5 84 1021.8 13.6 SW 14.5 0.0 0.4
13:06 10.1 7.5 84 1021.7 13.6 W 14.5 0.0 0.4
13:07 10.1 7.5 84 1021.8 15.9 W 15.9 0.0 0.4
13:08 10.1 7.5 84 1021.6 15.9 SW 15.9 0.0 0.4
13:09 10.1 7.5 84 1021.7 9.2 W 15.9 0.0 0.4
13:10 10.1 7.5 84 1021.8 9.8 SW 15.9 0.0 0.4
13:11 10.1 7.5 84 1021.7 15.2 SW 15.9 0.0 0.4
13:13 10.0 7.4 84 1021.8 14.5 SW 15.9 0.0 0.4
13:14 10.0 7.4 84 1021.7 13.6 SW 15.9 0.0 0.4
13:15 10.0 7.4 84 1021.6 11.4 SW 15.9 0.0 0.4
13:17 10.0 7.4 84 1021.6 10.7 W 15.9 0.0 0.4
13:18 10.0 7.4 84 1021.5 9.8 NW 15.9 0.0 0.4
13:19 10.0 7.4 84 1021.6 8.3 SW 15.9 0.0 0.4
13:20 10.0 7.4 84 1021.7 9.2 SW 15.9 0.0 0.4
13:21 10.0 7.2 83 1021.8 15.9 W 15.9 0.0 0.4
13:22 10.0 7.2 83 1021.6 17.4 W 17.4 0.0 0.4
13:23 10.0 7.2 83 1021.5 17.4 W 17.4 0.0 0.4
13:24 10.0 7.2 83 1021.5 11.4 SW 17.4 0.0 0.4
13:25 10.0 7.2 83 1021.5 17.4 SW 17.4 0.0 0.4
13:26 10.0 7.2 83 1021.5 15.2 W 17.4 0.0 0.4
13:27 10.1 7.3 83 1021.6 11.4 S 17.4 0.0 0.4
13:28 10.1 7.3 83 1021.6 10.7 SW 17.4 0.0 0.4
13:29 10.1 7.3 83 1021.5 14.5 SW 17.4 0.0 0.4
13:31 10.1 7.3 83 1021.5 9.2 SW 17.4 0.0 0.4
13:32 10.1 7.3 83 1021.4 10.7 SW 17.4 0.0 0.4
13:33 10.1 7.3 83 1021.5 10.7 SW 17.4 0.0 0.4
13:34 10.1 7.3 83 1021.6 9.8 W 17.4 0.0 0.4
13:35 10.1 7.3 83 1021.7 11.4 SW 15.9 0.0 0.4
13:36 10.1 7.3 83 1021.5 10.7 W 15.9 0.0 0.4
13:37 10.1 7.3 83 1021.5 10.7 W 15.9 0.0 0.4
13:38 10.1 7.3 83 1021.4 9.2 SW 15.9 0.0 0.4
13:39 10.1 7.3 83 1021.5 11.4 SW 15.9 0.0 0.4
13:40 10.1 7.3 83 1021.7 15.9 SW 15.9 0.0 0.4
13:41 10.1 7.3 83 1021.5 18.3 SW 18.3 0.0 0.4
13:42 10.1 7.3 83 1021.5 10.7 S 18.3 0.0 0.4
13:43 10.1 7.3 83 1021.5 16.8 SW 18.3 0.0 0.4
13:44 10.1 7.3 83 1021.4 14.5 SW 18.3 0.0 0.4
13:46 10.0 7.2 83 1021.4 11.4 SW 18.3 0.0 0.4
13:47 10.0 7.2 83 1021.6 14.5 WSW 18.3 0.0 0.4
13:48 10.0 7.2 83 1021.5 9.2 SW 18.3 0.0 0.4
13:49 10.0 7.2 83 1021.5 12.1 SW 18.3 0.0 0.4
13:50 10.0 7.2 83 1021.4 11.4 S 18.3 0.0 0.4
13:51 10.0 7.2 83 1021.5 10.7 SW 18.3 0.0 0.4
13:52 10.0 7.2 83 1021.7 12.1 W 16.8 0.0 0.4
13:53 10.0 7.2 83 1021.5 18.3 SW 18.3 0.0 0.4
13:54 10.0 7.2 83 1021.5 15.9 SW 18.3 0.0 0.4
13:55 10.0 7.2 83 1021.5 16.8 SW 18.3 0.0 0.4
13:56 10.0 7.2 83 1021.4 16.8 SW 18.3 0.0 0.4
13:57 10.0 7.2 83 1021.4 12.1 W 18.3 0.0 0.4
13:58 10.0 7.1 82 1021.4 17.4 W 18.3 0.0 0.4
13:59 10.0 7.1 82 1021.5 17.4 SW 18.3 0.0 0.4
14:00 10.0 7.1 82 1021.5 19.0 SW 19.0 0.0 0.4
14:01 10.0 7.1 82 1021.5 19.0 SW 19.0 0.0 0.4
14:02 10.0 7.1 82 1021.4 19.0 SW 19.0 0.0 0.4
14:03 10.0 7.1 82 1021.5 18.3 SW 19.0 0.0 0.4
14:04 10.0 7.1 82 1021.4 9.8 SW 19.0 0.0 0.4
14:05 10.0 7.1 82 1021.4 9.8 SW 19.0 0.0 0.4
14:06 10.0 7.1 82 1021.4 16.8 SW 19.0 0.0 0.4
14:07 10.0 7.1 82 1021.4 15.9 SW 19.0 0.0 0.4
14:08 10.0 7.1 82 1021.3 12.1 SW 19.0 0.0 0.4
14:09 10.0 7.1 82 1021.3 13.6 SW 19.0 0.0 0.4
14:10 10.0 7.1 82 1021.4 13.0 SW 19.0 0.0 0.4
14:11 10.0 7.1 82 1021.3 13.0 W 19.0 0.0 0.4
14:12 10.0 7.1 82 1021.4 11.4 W 19.0 0.0 0.4
14:14 10.0 7.1 82 1021.3 11.4 W 16.8 0.0 0.4
14:15 10.0 7.1 82 1021.3 11.4 W 16.8 0.0 0.4
14:16 10.0 7.1 82 1021.4 19.0 SW 19.0 0.0 0.4
14:17 10.0 7.1 82 1021.3 15.2 SW 19.0 0.0 0.4
14:18 10.0 7.1 82 1021.2 13.0 W 19.0 0.0 0.4
14:19 10.0 7.1 82 1021.1 15.9 W 19.0 0.0 0.4
14:20 10.0 7.1 82 1021.3 16.8 W 19.0 0.0 0.4
14:21 10.0 7.1 82 1021.2 14.5 W 19.0 0.0 0.4
14:22 10.0 7.1 82 1021.3 11.4 W 19.0 0.0 0.4
14:23 10.0 7.1 82 1021.4 13.6 W 19.0 0.0 0.4
14:24 10.0 7.1 82 1021.2 14.5 W 19.0 0.0 0.4
14:25 9.9 7.0 82 1021.1 12.1 W 19.0 0.0 0.4
14:26 9.9 7.0 82 1021.3 9.8 SW 19.0 0.0 0.4
14:28 9.9 7.0 82 1021.3 8.3 SW 16.8 0.0 0.4
14:29 9.9 7.0 82 1021.3 7.6 SW 16.8 0.0 0.4
14:30 9.9 7.0 82 1021.1 13.6 SW 14.5 0.0 0.4
14:31 9.9 7.0 82 1021.5 7.6 SW 14.5 0.0 0.4
14:32 9.9 7.0 82 1021.1 10.7 W 14.5 0.0 0.4
14:33 9.9 7.0 82 1021.3 7.6 W 14.5 0.0 0.4
14:34 9.9 7.0 82 1021.3 7.6 W 14.5 0.0 0.4
14:35 9.9 7.0 82 1021.2 6.9 SW 13.6 0.0 0.4
14:36 9.9 7.0 82 1021.3 5.4 SW 13.6 0.0 0.4
14:37 9.9 7.0 82 1021.2 6.9 SW 13.6 0.0 0.4
14:38 9.9 7.0 82 1021.1 9.8 W 13.6 0.0 0.4
14:39 9.8 6.9 82 1021.2 9.2 W 13.6 0.0 0.4
14:40 9.8 6.9 82 1021.3 9.2 S 13.6 0.0 0.4
14:41 9.8 6.9 82 1021.3 9.2 W 10.7 0.0 0.4
14:42 9.8 6.9 82 1021.2 9.8 SW 10.7 0.0 0.4
14:43 9.8 6.9 82 1021.2 12.1 SW 12.1 0.0 0.4
14:45 9.8 6.9 82 1021.2 11.4 SW 12.1 0.0 0.4
14:46 9.8 6.9 82 1021.1 11.4 SW 12.1 0.0 0.4
14:47 9.8 6.9 82 1021.2 6.9 SW 12.1 0.0 0.4
14:48 9.8 6.9 82 1021.2 10.7 W 12.1 0.0 0.4
14:49 9.8 6.9 82 1021.4 10.7 W 12.1 0.0 0.4
14:50 9.8 6.9 82 1021.4 8.3 NW 12.1 0.0 0.4
14:51 9.8 6.9 82 1021.3 12.1 SW 12.1 0.0 0.4
14:52 9.8 6.9 82 1021.3 12.1 S 12.1 0.0 0.4
14:53 9.8 6.9 82 1021.0 13.0 SW 13.0 0.0 0.4
14:54 9.7 7.0 83 1021.1 13.0 SW 13.0 0.0 0.4
14:55 9.7 7.0 83 1021.2 9.8 NW 13.0 0.0 0.4
14:56 9.7 7.0 83 1021.1 9.8 W 13.0 0.0 0.4
14:57 9.7 7.0 83 1021.1 9.8 SW 13.0 0.0 0.4
14:58 9.7 7.0 83 1021.1 10.7 SW 13.0 0.0 0.4
14:59 9.7 7.0 83 1021.3 12.1 SW 13.0 0.0 0.4
15:01 9.7 7.0 83 1021.3 13.0 SW 13.0 0.0 0.4
15:02 9.7 7.0 83 1021.4 13.0 SW 13.0 0.0 0.4
15:03 9.7 7.0 83 1021.2 13.0 SW 13.0 0.0 0.4
15:04 9.7 7.0 83 1021.1 13.0 SW 13.0 0.0 0.4
15:05 9.7 7.0 83 1021.3 13.6 SW 13.6 0.0 0.4
15:06 9.7 7.0 83 1021.3 11.4 SW 13.6 0.0 0.4
15:07 9.7 7.0 83 1021.4 11.4 SW 13.6 0.0 0.4
15:08 9.6 6.9 83 1021.5 10.7 S 13.6 0.0 0.4
15:09 9.6 6.9 83 1021.5 17.4 WSW 17.4 0.0 0.4
15:10 9.6 6.9 83 1021.2 10.7 W 17.4 0.0 0.4
15:11 9.6 6.9 83 1021.2 13.0 SW 17.4 0.0 0.4
15:12 9.6 6.9 83 1021.3 9.8 WNW 17.4 0.0 0.4
15:13 9.6 6.9 83 1021.2 13.0 SW 17.4 0.0 0.4
15:14 9.6 6.9 83 1021.3 13.0 W 17.4 0.0 0.4
15:15 9.6 6.9 83 1021.1 11.4 SW 17.4 0.0 0.4
15:16 9.6 6.9 83 1021.3 13.6 SW 17.4 0.0 0.4
15:17 9.6 6.9 83 1021.3 15.2 W 17.4 0.0 0.4
15:18 9.6 6.9 83 1021.3 13.0 W 17.4 0.0 0.4
15:19 9.6 6.9 83 1021.4 13.6 W 15.2 0.0 0.4
15:20 9.6 6.9 83 1021.4 9.8 SW 15.2 0.0 0.4
15:21 9.6 6.9 83 1021.3 9.2 SW 15.2 0.0 0.4
15:22 9.6 6.9 83 1021.4 9.2 SW 15.2 0.0 0.4
15:23 9.6 6.9 83 1021.1 6.9 W 15.2 0.0 0.4
15:24 9.6 6.9 83 1021.3 11.4 W 15.2 0.0 0.4
15:25 9.6 7.0 84 1021.5 9.2 SW 15.2 0.0 0.4
15:26 9.6 7.0 84 1021.3 9.2 SW 15.2 0.0 0.4
15:27 9.6 7.0 84 1021.3 12.1 SW 15.2 0.0 0.4
15:28 9.6 7.0 84 1021.3 13.0 SW 13.6 0.0 0.4
15:29 9.6 7.0 84 1021.2 12.1 SW 13.6 0.0 0.4
15:30 9.5 6.9 84 1021.3 9.8 W 13.0 0.0 0.4
15:31 9.5 6.9 84 1021.1 9.2 SW 13.0 0.0 0.4
15:32 9.5 6.9 84 1021.3 9.2 W 13.0 0.0 0.4
15:33 9.5 6.9 84 1021.5 8.3 SSW 13.0 0.0 0.4
15:34 9.5 6.9 84 1021.4 13.6 W 14.5 0.0 0.4
15:36 9.5 6.9 84 1021.5 9.8 SW 14.5 0.0 0.4
15:37 9.5 6.9 84 1021.3 9.2 SW 14.5 0.0 0.4
15:38 9.5 6.9 84 1021.4 9.8 SW 14.5 0.0 0.4
15:39 9.5 6.9 84 1021.3 9.8 SW 14.5 0.0 0.4
15:40 9.5 6.9 84 1021.4 18.3 W 18.3 0.0 0.4
15:41 9.5 6.9 84 1021.5 12.1 SW 18.3 0.0 0.4
15:42 9.5 6.9 84 1021.5 11.4 SW 18.3 0.0 0.4
15:43 9.5 6.9 84 1021.2 12.1 WSW 18.3 0.0 0.4
15:44 9.5 6.9 84 1021.2 12.1 SW 18.3 0.0 0.4
15:45 9.5 6.9 84 1021.3 13.6 SW 18.3 0.0 0.4
15:46 9.5 6.9 84 1021.4 8.3 W 18.3 0.0 0.4
15:47 9.5 6.9 84 1021.4 9.2 SW 18.3 0.0 0.4
15:48 9.5 6.9 84 1021.5 8.3 SW 18.3 0.0 0.4
15:49 9.5 6.9 84 1021.3 11.4 W 18.3 0.0 0.4
15:50 9.5 6.9 84 1021.4 9.2 W 18.3 0.0 0.4
15:52 9.5 6.9 84 1021.5 15.9 SW 15.9 0.0 0.4
15:53 9.5 6.9 84 1021.2 15.9 SW 15.9 0.0 0.4
15:54 9.5 6.9 84 1021.4 13.0 SW 15.9 0.0 0.4
15:55 9.5 6.9 84 1021.3 11.4 W 15.9 0.0 0.4
15:56 9.5 6.9 84 1021.3 13.0 WSW 15.9 0.0 0.4
15:57 9.5 6.9 84 1021.5 14.5 SW 15.9 0.0 0.4
15:58 9.5 6.9 84 1021.5 13.0 SW 15.9 0.0 0.4
15:59 9.5 6.9 84 1021.3 15.2 W 15.9 0.0 0.4
16:00 9.4 6.8 84 1021.5 15.9 SW 15.9 0.0 0.4
16:01 9.4 6.8 84 1021.3 15.9 SW 15.9 0.0 0.4
16:02 9.4 6.8 84 1021.2 15.9 SW 15.9 0.0 0.4
16:03 9.4 6.8 84 1021.2 15.9 SW 15.9 0.0 0.4
16:04 9.4 6.8 84 1021.3 15.9 SW 15.9 0.0 0.4
16:05 9.4 6.8 84 1021.3 15.9 SW 15.9 0.0 0.4
16:06 9.4 6.8 84 1021.3 15.9 SW 15.9 0.0 0.4
16:08 9.4 6.8 84 1021.4 15.9 SW 15.9 0.0 0.4
16:09 9.4 6.8 84 1021.4 14.5 W 15.9 0.0 0.4
16:10 9.4 6.8 84 1021.2 11.4 W 15.9 0.0 0.4
16:11 9.4 6.8 84 1021.2 9.8 SW 15.9 0.0 0.4
16:12 9.4 6.8 84 1021.2 13.6 SW 15.9 0.0 0.4
16:13 9.4 6.8 84 1021.2 13.6 SW 15.9 0.0 0.4
16:14 9.4 6.8 84 1021.4 11.4 SW 15.9 0.0 0.4
16:15 9.3 6.7 84 1021.3 12.1 SW 15.9 0.0 0.4
16:16 9.3 6.7 84 1021.3 12.1 SSW 15.9 0.0 0.4
16:17 9.3 6.7 84 1021.1 12.1 SW 15.9 0.0 0.4
16:18 9.3 6.7 84 1021.4 10.7 SW 15.9 0.0 0.4
16:19 9.3 6.7 84 1021.3 12.1 SW 15.9 0.0 0.4
16:20 9.3 6.7 84 1021.2 13.6 W 13.6 0.0 0.4
16:22 9.3 6.7 84 1021.1 14.5 W 14.5 0.0 0.4
16:23 9.3 6.7 84 1021.1 14.5 SW 14.5 0.0 0.4
16:24 9.3 6.7 84 1021.2 11.4 SW 14.5 0.0 0.4
16:25 9.3 6.7 84 1021.2 13.6 SW 14.5 0.0 0.4
16:26 9.3 6.7 84 1021.2 13.6 SW 14.5 0.0 0.4
16:27 9.3 6.7 84 1021.2 16.8 W 16.8 0.0 0.4
16:28 9.3 6.9 85 1021.1 13.6 SW 16.8 0.0 0.4
16:29 9.3 6.9 85 1021.1 11.4 SW 16.8 0.0 0.4
16:30 9.3 6.9 85 1021.3 12.1 S 16.8 0.0 0.4
16:31 9.3 6.9 85 1021.1 14.5 SSW 16.8 0.0 0.4
16:32 9.3 6.9 85 1021.3 14.5 S 16.8 0.0 0.4
16:33 9.3 6.9 85 1021.2 12.1 SW 16.8 0.0 0.4
16:34 9.3 6.9 85 1021.0 13.0 SW 16.8 0.0 0.4
16:36 9.4 7.0 85 1021.1 9.8 W 16.8 0.0 0.4
16:37 9.4 7.0 85 1021.2 9.8 W 14.5 0.0 0.4
16:38 9.4 7.0 85 1021.2 9.2 SW 14.5 0.0 0.4
16:39 9.4 7.0 85 1021.1 13.0 SW 14.5 0.0 0.4
16:40 9.4 7.0 85 1021.3 9.8 SW 14.5 0.0 0.4
16:41 9.4 7.0 85 1021.2 11.4 W 14.5 0.0 0.4
16:42 9.4 7.0 85 1021.2 10.7 SW 14.5 0.0 0.4
16:43 9.4 7.0 85 1021.2 10.7 SW 14.5 0.0 0.4
16:44 9.4 7.0 85 1021.4 9.2 SW 14.5 0.0 0.4
16:45 9.4 7.0 85 1021.3 13.0 SW 14.5 0.0 0.4
16:46 9.4 7.0 85 1021.4 11.4 W 13.0 0.0 0.4
16:47 9.4 7.0 85 1021.3 10.7 SW 13.0 0.0 0.4
16:48 9.4 7.0 85 1021.2 9.2 W 13.0 0.0 0.4
16:51 9.4 7.0 85 1021.2 11.4 SW 13.0 0.0 0.4
16:52 9.4 7.0 85 1021.2 11.4 SW 13.0 0.0 0.4
16:53 9.4 7.0 85 1021.2 11.4 SW 13.0 0.0 0.4
16:54 9.4 7.0 85 1021.2 11.4 SW 13.0 0.0 0.4
16:55 9.4 7.0 85 1021.2 9.8 SW 11.4 0.0 0.4
16:56 9.4 7.0 85 1021.3 12.1 W 12.1 0.0 0.4
16:57 9.4 7.0 85 1021.2 13.0 SW 13.0 0.0 0.4
16:58 9.4 7.0 85 1021.5 12.1 SW 13.0 0.0 0.4
16:59 9.4 7.0 85 1021.2 13.6 SW 13.6 0.0 0.4
17:00 9.4 7.0 85 1021.1 13.0 SW 13.6 0.0 0.4
17:01 9.4 7.0 85 1021.2 13.0 SW 13.6 0.0 0.4
17:02 9.4 7.0 85 1021.3 13.0 SW 13.6 0.0 0.4
17:03 9.4 7.0 85 1021.1 13.0 SW 13.6 0.0 0.4
17:05 9.4 7.0 85 1021.2 13.0 SW 13.6 0.0 0.4
17:06 9.4 7.0 85 1021.1 13.0 SW 13.6 0.0 0.4
17:07 9.4 7.0 85 1021.2 9.8 S 13.6 0.0 0.4
17:08 9.4 7.0 85 1021.2 11.4 SW 13.6 0.0 0.4
17:09 9.4 7.0 85 1021.1 10.7 SW 13.0 0.0 0.4
17:10 9.4 7.0 85 1021.1 13.6 SW 13.6 0.0 0.4
17:11 9.4 7.0 85 1021.1 13.6 W 13.6 0.0 0.4
17:12 9.4 7.0 85 1021.1 11.4 SW 13.6 0.0 0.4
17:13 9.4 7.0 85 1021.1 10.7 SW 13.6 0.0 0.4
17:14 9.4 7.0 85 1021.0 12.1 SW 13.6 0.0 0.4
17:15 9.4 7.0 85 1021.3 13.0 W 13.6 0.0 0.4
17:16 9.4 7.0 85 1021.1 11.4 SW 13.6 0.0 0.4
17:17 9.4 7.0 85 1021.2 11.4 SW 13.6 0.0 0.4
17:18 9.4 7.0 85 1021.1 9.8 SW 13.6 0.0 0.4
17:19 9.4 7.0 85 1021.0 12.1 SW 13.6 0.0 0.4
17:20 9.4 7.0 85 1021.4 11.4 WNW 13.6 0.0 0.4
17:21 9.4 7.0 85 1021.2 12.1 SW 13.6 0.0 0.4
17:22 9.4 7.0 85 1021.4 13.6 SW 13.6 0.0 0.4
17:23 9.4 7.0 85 1021.0 9.8 SW 13.6 0.0 0.4
17:24 9.4 7.0 85 1021.2 9.8 SW 13.6 0.0 0.4
17:26 9.4 7.0 85 1021.1 9.8 W 13.6 0.0 0.4
17:27 9.4 7.0 85 1021.3 13.6 W 13.6 0.0 0.4
17:28 9.4 7.0 85 1021.3 12.1 SW 13.6 0.0 0.4
17:29 9.4 7.0 85 1021.2 12.1 S 13.6 0.0 0.4
17:30 9.4 7.0 85 1021.1 11.4 SSW 13.6 0.0 0.4
17:31 9.4 7.0 85 1021.1 12.1 SW 13.6 0.0 0.4
17:32 9.4 7.0 85 1021.3 9.8 SW 13.6 0.0 0.4
17:33 9.4 7.0 85 1021.1 15.2 SW 15.2 0.0 0.4
17:34 9.4 7.0 85 1021.0 15.2 SW 15.2 0.0 0.4
17:35 9.4 7.0 85 1021.2 14.5 SW 15.2 0.0 0.4
17:36 9.4 7.0 85 1021.0 15.2 WSW 15.2 0.0 0.4
17:37 9.4 7.0 85 1021.0 11.4 SW 15.2 0.0 0.4
17:38 9.4 7.0 85 1021.1 11.4 SW 15.2 0.0 0.4
17:40 9.4 7.0 85 1020.9 12.1 S 15.2 0.0 0.4
17:41 9.4 7.0 85 1021.2 12.1 SW 15.2 0.0 0.4
17:42 9.4 7.0 85 1021.1 12.1 S 15.2 0.0 0.4
17:43 9.4 7.0 85 1021.1 10.7 SW 15.2 0.0 0.4
17:44 9.4 7.0 85 1021.2 12.1 SW 15.9 0.0 0.4
17:45 9.4 7.0 85 1021.1 11.4 SW 15.9 0.0 0.4
17:46 9.4 7.0 85 1021.2 13.6 SW 15.9 0.0 0.4
17:47 9.5 7.1 85 1021.1 13.6 SW 15.9 0.0 0.4
17:48 9.5 7.1 85 1021.4 15.9 SW 15.9 0.0 0.4
17:49 9.5 7.1 85 1021.1 15.2 WSW 15.9 0.0 0.4
17:50 9.5 7.1 85 1021.1 13.0 SW 15.9 0.0 0.4
17:51 9.5 7.1 85 1021.1 11.4 SW 15.9 0.0 0.4
17:52 9.5 7.1 85 1021.2 12.1 W 15.9 0.0 0.4
17:53 9.5 7.1 85 1021.1 14.5 SW 15.9 0.0 0.4
17:55 9.5 7.1 85 1021.0 14.5 SW 15.9 0.0 0.4
17:56 9.5 7.1 85 1021.1 11.4 SW 15.9 0.0 0.4
17:57 9.5 7.1 85 1021.1 9.2 S 15.9 0.0 0.4
17:58 9.5 7.1 85 1021.1 9.8 SW 15.2 0.0 0.4
17:59 9.5 7.1 85 1021.0 12.1 W 14.5 0.0 0.4
18:00 9.5 7.1 85 1020.9 13.6 W 15.9 0.0 0.4
18:01 9.5 7.1 85 1020.9 13.6 W 15.9 0.0 0.4
18:02 9.5 7.1 85 1021.0 10.7 SW 15.9 0.0 0.4
18:03 9.5 7.1 85 1021.2 15.2 SW 15.9 0.0 0.4
18:04 9.5 7.1 85 1021.0 13.0 SW 15.9 0.0 0.4
18:05 9.5 7.1 85 1020.9 15.2 SW 15.9 0.0 0.4
18:06 9.5 7.1 85 1021.0 16.8 W 16.8 0.0 0.4
18:07 9.5 7.1 85 1021.0 10.7 SW 16.8 0.0 0.4
18:08 9.5 7.1 85 1021.1 13.0 W 16.8 0.0 0.4
18:09 9.5 7.1 85 1021.0 13.0 S 16.8 0.0 0.4
18:11 9.5 7.1 85 1021.1 12.1 SW 16.8 0.0 0.4
18:12 9.5 7.1 85 1021.0 9.2 W 16.8 0.0 0.4
18:13 9.5 7.1 85 1020.9 12.1 SW 16.8 0.0 0.4
18:14 9.6 7.2 85 1021.1 12.1 W 16.8 0.0 0.4
18:15 9.6 7.2 85 1021.0 13.6 SW 16.8 0.0 0.4
18:16 9.6 7.2 85 1021.0 13.6 SW 16.8 0.0 0.4
18:17 9.6 7.2 85 1021.0 13.6 SW 13.6 0.0 0.4
18:18 9.6 7.2 85 1021.0 19.0 SW 19.0 0.0 0.4
18:19 9.6 7.2 85 1021.0 19.0 SW 19.0 0.0 0.4
18:20 9.6 7.2 85 1020.9 13.6 SW 19.0 0.0 0.4
18:21 9.6 7.2 85 1020.9 13.0 SW 19.0 0.0 0.4
18:22 9.6 7.2 85 1020.9 21.3 SSW 21.3 0.0 0.4
18:23 9.6 7.2 85 1020.9 21.3 SW 21.3 0.0 0.4
18:24 9.6 7.2 85 1020.9 16.8 SW 21.3 0.0 0.4
18:25 9.6 7.2 85 1021.0 16.8 S 21.3 0.0 0.4
18:27 9.6 7.2 85 1020.9 14.5 SW 21.3 0.0 0.4
18:28 9.6 7.2 85 1020.9 12.1 SW 21.3 0.0 0.4
18:29 9.6 7.2 85 1020.8 11.4 SW 21.3 0.0 0.4
18:30 9.6 7.2 85 1020.8 12.1 SW 21.3 0.0 0.4
18:31 9.6 7.2 85 1020.8 10.7 SW 21.3 0.0 0.4
18:32 9.6 7.2 85 1020.9 13.6 SW 21.3 0.0 0.4
18:33 9.6 7.2 85 1020.9 13.6 SW 21.3 0.0 0.4
18:34 9.6 7.2 85 1020.8 11.4 SW 16.8 0.0 0.4
18:35 9.6 7.2 85 1020.8 15.9 W 15.9 0.0 0.4
18:36 9.6 7.2 85 1020.9 13.0 W 15.9 0.0 0.4
18:37 9.6 7.2 85 1020.9 13.0 SW 15.9 0.0 0.4
18:38 9.6 7.2 85 1020.9 13.0 W 15.9 0.0 0.4
18:39 9.6 7.2 85 1021.0 14.5 SW 15.9 0.0 0.4
18:40 9.6 7.2 85 1020.6 14.5 SW 15.9 0.0 0.4
18:41 9.6 7.2 85 1020.9 11.4 SW 15.9 0.0 0.4
18:43 9.6 7.2 85 1020.7 13.6 SW 15.9 0.0 0.4
18:44 9.6 7.2 85 1020.9 13.6 W 15.9 0.0 0.4
18:45 9.6 7.2 85 1020.8 13.6 W 15.9 0.0 0.4
18:46 9.6 7.2 85 1020.9 13.6 W 15.9 0.0 0.4
18:47 9.6 7.2 85 1020.8 13.6 W 15.9 0.0 0.4
18:48 9.6 7.2 85 1020.9 14.5 SW 15.9 0.0 0.4
18:49 9.6 7.2 85 1020.8 15.2 W 15.9 0.0 0.4
18:50 9.6 7.2 85 1020.8 17.4 W 17.4 0.0 0.4
18:51 9.6 7.2 85 1020.8 14.5 SW 17.4 0.0 0.4
18:52 9.6 7.2 85 1020.7 14.5 SW 17.4 0.0 0.4
18:53 9.6 7.2 85 1020.9 14.5 SW 17.4 0.0 0.4
18:54 9.6 7.2 85 1020.9 14.5 SW 17.4 0.0 0.4
18:55 9.6 7.2 85 1020.8 13.0 SW 17.4 0.0 0.4
18:56 9.6 7.2 85 1020.9 15.9 S 17.4 0.0 0.4
18:57 9.6 7.2 85 1020.8 19.0 S 19.0 0.0 0.4
18:58 9.6 7.2 85 1020.9 19.0 SW 19.0 0.0 0.4
18:59 9.6 7.2 85 1020.8 14.5 SW 19.0 0.0 0.4
19:00 9.6 7.2 85 1020.9 15.2 SW 19.0 0.0 0.4
19:01 9.6 7.2 85 1020.8 15.2 SW 19.0 0.0 0.4
19:03 9.6 7.2 85 1020.7 15.2 SW 19.0 0.0 0.4
19:04 9.6 7.2 85 1020.8 15.2 SW 19.0 0.0 0.4
19:05 9.6 7.2 85 1020.6 15.2 SW 19.0 0.0 0.4
19:06 9.6 7.2 85 1020.6 15.2 SW 19.0 0.0 0.4
19:07 9.6 7.2 85 1020.9 15.2 SW 19.0 0.0 0.4
19:08 9.7 7.3 85 1020.9 11.4 SW 17.4 0.0 0.4
19:09 9.7 7.3 85 1020.7 11.4 SW 17.4 0.0 0.4
19:10 9.7 7.3 85 1020.8 11.4 SW 17.4 0.0 0.4
19:11 9.7 7.3 85 1020.7 11.4 SW 17.4 0.0 0.4
19:12 9.7 7.3 85 1020.7 11.4 SW 17.4 0.0 0.4
19:13 9.7 7.3 85 1020.7 11.4 SW 17.4 0.0 0.4
19:14 9.7 7.3 85 1020.8 13.0 SW 17.4 0.0 0.4
19:15 9.7 7.3 85 1020.7 11.4 WSW 17.4 0.0 0.4
19:16 9.7 7.3 85 1021.0 13.6 SW 17.4 0.0 0.4
19:17 9.7 7.3 85 1020.9 13.6 SW 17.4 0.0 0.4
19:18 9.7 7.3 85 1020.8 13.6 SW 17.4 0.0 0.4
19:19 9.7 7.3 85 1020.8 13.6 SW 13.6 0.0 0.4
19:20 9.7 7.3 85 1020.9 13.6 SW 13.6 0.0 0.4
19:21 9.7 7.3 85 1020.8 19.7 W 19.7 0.0 0.4
19:22 9.7 7.3 85 1020.8 19.7 SW 19.7 0.0 0.4
19:23 9.7 7.3 85 1020.8 14.5 SW 19.7 0.0 0.4
19:24 9.7 7.3 85 1020.7 12.1 SW 19.7 0.0 0.4
19:25 9.7 7.3 85 1020.7 12.1 SW 19.7 0.0 0.4
19:28 9.7 7.3 85 1020.7 9.2 S 19.7 0.0 0.4
19:29 9.7 7.3 85 1020.8 9.2 S 19.7 0.0 0.4
19:30 9.7 7.3 85 1020.7 15.9 SW 19.7 0.0 0.4
19:31 9.7 7.3 85 1020.9 15.9 SW 19.7 0.0 0.4
19:32 9.7 7.3 85 1020.8 12.1 W 17.4 0.0 0.4
19:33 9.7 7.3 85 1020.8 13.0 SW 17.4 0.0 0.4
19:34 9.7 7.3 85 1020.8 13.0 SW 17.4 0.0 0.4
19:35 9.7 7.3 85 1021.0 13.6 SW 17.4 0.0 0.4
19:36 9.7 7.3 85 1020.9 13.6 SW 17.4 0.0 0.4
19:37 9.7 7.3 85 1021.0 14.5 SW 15.9 0.0 0.4
19:38 9.7 7.3 85 1020.7 16.8 SW 16.8 0.0 0.4
19:39 9.7 7.3 85 1020.8 13.6 W 16.8 0.0 0.4
19:40 9.7 7.3 85 1020.7 13.6 SW 16.8 0.0 0.4
19:41 9.7 7.3 85 1021.0 10.7 W 16.8 0.0 0.4
19:42 9.7 7.3 85 1021.0 14.5 SW 16.8 0.0 0.4
19:44 9.7 7.3 85 1020.8 16.8 W 16.8 0.0 0.4
19:45 9.7 7.3 85 1020.9 16.8 W 16.8 0.0 0.4
19:46 9.7 7.3 85 1020.5 10.7 W 16.8 0.0 0.4
19:47 9.7 7.3 85 1020.8 13.0 SW 16.8 0.0 0.4
19:48 9.7 7.3 85 1020.7 13.0 SW 16.8 0.0 0.4
19:49 9.7 7.3 85 1020.7 13.0 SW 16.8 0.0 0.4
19:50 9.7 7.3 85 1020.8 14.5 SW 16.8 0.0 0.4
19:51 9.7 7.3 85 1020.7 14.5 SW 16.8 0.0 0.4
19:52 9.7 7.3 85 1020.7 14.5 SW 16.8 0.0 0.4
19:53 9.7 7.3 85 1020.9 14.5 SW 16.8 0.0 0.4
19:54 9.7 7.3 85 1020.5 9.8 SW 16.8 0.0 0.4
19:55 9.7 7.3 85 1020.5 12.1 SW 16.8 0.0 0.4
19:56 9.7 7.3 85 1020.6 12.1 SW 14.5 0.0 0.4
19:57 9.7 7.3 85 1020.7 13.0 SW 14.5 0.0 0.4
19:59 9.7 7.3 85 1020.8 14.5 SW 14.5 0.0 0.4
20:00 9.7 7.3 85 1020.6 13.0 SSW 14.5 0.0 0.4
20:01 9.7 7.3 85 1020.6 9.2 W 14.5 0.0 0.4
20:02 9.7 7.3 85 1020.5 12.1 SW 14.5 0.0 0.4
20:03 9.7 7.3 85 1020.6 13.0 SW 14.5 0.0 0.4
20:04 9.7 7.3 85 1020.6 13.0 SW 14.5 0.0 0.4
20:05 9.7 7.3 85 1020.8 13.0 SW 14.5 0.0 0.4
20:06 9.7 7.5 86 1020.6 15.2 W 15.2 0.0 0.4
20:07 9.7 7.5 86 1020.6 13.6 W 15.2 0.0 0.4
20:08 9.7 7.5 86 1020.7 13.0 SW 15.2 0.0 0.4
20:09 9.7 7.5 86 1020.6 11.4 SW 15.2 0.0 0.4
20:10 9.7 7.5 86 1020.8 14.5 SW 15.2 0.0 0.4
20:11 9.7 7.5 86 1020.6 14.5 SW 15.2 0.0 0.4
20:12 9.7 7.5 86 1020.7 14.5 SW 15.2 0.0 0.4
20:13 9.7 7.5 86 1020.7 14.5 SW 15.2 0.0 0.4
20:15 9.7 7.5 86 1020.5 14.5 SW 15.2 0.0 0.4
20:16 9.7 7.5 86 1020.6 15.2 SW 15.2 0.0 0.4
20:17 9.7 7.5 86 1020.6 14.5 W 15.2 0.0 0.4
20:18 9.7 7.5 86 1020.8 11.4 SW 15.2 0.0 0.4
20:19 9.7 7.5 86 1020.9 10.7 SW 15.2 0.0 0.4
20:20 9.7 7.5 86 1020.7 11.4 SW 15.2 0.0 0.4
20:21 9.7 7.5 86 1020.7 11.4 SW 15.2 0.0 0.4
20:22 9.7 7.5 86 1020.7 15.9 SW 19.7 0.0 0.4
20:23 9.7 7.5 86 1020.5 15.9 SW 19.7 0.0 0.4
20:24 9.7 7.5 86 1020.6 11.4 SW 19.7 0.0 0.4
20:25 9.7 7.5 86 1020.7 13.0 SW 19.7 0.0 0.4
20:26 9.7 7.5 86 1020.6 11.4 SW 19.7 0.0 0.4
20:27 9.7 7.5 86 1020.7 15.9 W 19.7 0.0 0.4
20:30 9.8 7.6 86 1020.7 15.2 NNW 19.7 0.0 0.4
20:31 9.8 7.6 86 1020.5 16.8 SW 19.7 0.0 0.4
20:32 9.8 7.6 86 1020.7 16.8 W 16.8 0.0 0.4
20:33 9.8 7.6 86 1020.7 16.8 W 16.8 0.0 0.4
20:34 9.8 7.6 86 1020.7 14.5 SW 16.8 0.0 0.4
20:35 9.8 7.6 86 1020.7 13.0 SW 16.8 0.0 0.4
20:36 9.8 7.6 86 1020.6 13.6 SW 16.8 0.0 0.4
20:37 9.8 7.6 86 1020.5 11.4 S 16.8 0.0 0.4
20:38 9.8 7.6 86 1020.6 10.7 SW 16.8 0.0 0.4
20:39 9.8 7.6 86 1020.5 9.8 SW 16.8 0.0 0.4
20:40 9.8 7.6 86 1020.3 10.7 S 16.8 0.0 0.4
20:41 9.8 7.6 86 1020.6 10.7 SW 16.8 0.0 0.4
20:42 9.8 7.6 86 1020.6 12.1 SW 16.8 0.0 0.4
20:43 9.8 7.6 86 1020.7 13.6 SW 16.8 0.0 0.4
20:45 9.8 7.6 86 1020.6 15.9 SW 15.9 0.0 0.4
20:46 9.8 7.6 86 1020.6 15.2 SW 15.9 0.0 0.4
20:47 9.8 7.6 86 1020.4 12.1 SW 15.9 0.0 0.4
20:48 9.8 7.6 86 1020.6 13.0 SW 15.9 0.0 0.4
20:49 9.8 7.6 86 1020.4 15.9 SW 15.9 0.0 0.4
20:50 9.8 7.6 86 1020.6 11.4 SE 15.9 0.0 0.4
20:51 9.8 7.6 86 1020.7 14.5 SW 15.9 0.0 0.4
20:52 9.8 7.6 86 1020.4 14.5 W 15.9 0.0 0.4
20:53 9.8 7.6 86 1020.5 17.4 WSW 17.4 0.0 0.4
20:54 9.8 7.6 86 1020.5 17.4 WSW 17.4 0.0 0.4
20:55 9.8 7.6 86 1020.7 13.0 SW 17.4 0.0 0.4
20:56 9.8 7.6 86 1020.6 13.6 SW 17.4 0.0 0.4
20:57 9.8 7.6 86 1020.4 13.6 SW 17.4 0.0 0.4
20:58 9.8 7.6 86 1020.4 14.5 SW 17.4 0.0 0.4
20:59 9.8 7.6 86 1020.5 13.6 SW 17.4 0.0 0.4
21:01 9.8 7.6 86 1020.5 15.9 W 17.4 0.0 0.4
21:02 9.8 7.6 86 1020.6 15.9 W 17.4 0.0 0.4
21:03 9.8 7.6 86 1020.6 15.9 W 17.4 0.0 0.4
21:04 9.8 7.6 86 1020.4 15.9 W 15.9 0.0 0.4
21:05 9.8 7.6 86 1020.8 15.9 W 15.9 0.0 0.4
21:06 9.8 7.6 86 1020.3 15.9 W 15.9 0.0 0.4
21:07 9.8 7.6 86 1020.7 13.6 W 15.9 0.0 0.4
21:08 9.8 7.6 86 1020.6 13.6 SW 15.9 0.0 0.4
21:09 9.8 7.6 86 1020.4 10.7 W 15.9 0.0 0.4
21:10 9.8 7.6 86 1020.5 14.5 SW 15.9 0.0 0.4
21:11 9.9 7.7 86 1020.9 14.5 S 15.9 0.0 0.4
21:12 9.9 7.7 86 1020.5 16.8 SW 16.8 0.0 0.4
21:13 9.9 7.7 86 1020.6 17.4 SW 17.4 0.0 0.4
21:14 9.9 7.7 86 1020.7 17.4 SW 17.4 0.0 0.4
21:15 9.9 7.8 87 1020.5 13.6 SW 17.4 0.0 0.4
21:16 9.9 7.8 87 1020.6 15.2 SW 17.4 0.0 0.4
21:17 9.9 7.8 87 1020.4 14.5 S 17.4 0.0 0.4
21:18 9.9 7.8 87 1020.5 16.8 SW 17.4 0.0 0.4
21:19 9.9 7.8 87 1020.6 15.9 SW 17.4 0.0 0.4
21:20 9.9 7.8 87 1020.4 12.1 WSW 17.4 0.0 0.4
21:21 9.9 7.8 87 1020.5 12.1 SW 17.4 0.0 0.4
21:23 9.9 7.8 87 1020.4 15.2 SW 17.4 0.0 0.4
21:24 9.9 7.8 87 1020.4 14.5 W 16.8 0.0 0.4
21:25 9.9 7.8 87 1020.7 11.4 SW 16.8 0.0 0.4
21:26 9.9 7.8 87 1020.5 11.4 SW 16.8 0.0 0.4
21:27 9.9 7.8 87 1020.5 11.4 SW 16.8 0.0 0.4
21:28 9.9 7.8 87 1020.6 15.2 S 15.9 0.0 0.4
21:29 9.9 7.8 87 1020.6 15.2 S 15.9 0.0 0.4
21:30 9.9 7.8 87 1020.4 14.5 SW 15.2 0.0 0.4
21:31 9.9 7.8 87 1020.5 11.4 NW 15.2 0.0 0.4
21:32 9.9 7.8 87 1020.6 13.0 SW 15.2 0.0 0.4
21:33 9.9 7.8 87 1020.5 15.2 SW 15.2 0.0 0.4
21:34 9.9 7.8 87 1020.4 13.0 SW 15.2 0.0 0.4
21:35 9.9 7.8 87 1020.3 11.4 SW 15.2 0.0 0.4
21:36 9.9 7.8 87 1020.4 11.4 SW 15.2 0.0 0.4
21:38 9.9 7.8 87 1020.4 19.7 SW 22.8 0.0 0.4
21:39 10.0 7.9 87 1020.4 14.5 SW 22.8 0.0 0.4
21:40 10.0 7.9 87 1020.5 15.9 SW 22.8 0.0 0.4
21:41 10.0 7.9 87 1020.6 17.4 SW 22.8 0.0 0.4
21:42 10.0 7.9 87 1020.4 15.9 SW 22.8 0.0 0.4
21:43 10.0 7.9 87 1020.3 14.5 WSW 22.8 0.0 0.4
21:44 10.0 7.9 87 1020.3 18.3 SW 22.8 0.0 0.4
21:45 10.0 7.9 87 1020.4 18.3 SSW 22.8 0.0 0.4
21:46 10.0 7.9 87 1020.5 15.9 SW 22.8 0.0 0.4
21:47 10.0 7.9 87 1020.5 15.9 SW 22.8 0.0 0.4
21:48 10.0 7.9 87 1020.4 15.2 WNW 19.7 0.0 0.4
21:49 10.0 7.9 87 1020.4 19.0 SW 19.0 0.0 0.4
21:50 10.0 7.9 87 1020.3 15.2 W 19.0 0.0 0.4
21:51 10.0 7.9 87 1020.3 15.2 S 19.0 0.0 0.4
21:52 10.0 7.9 87 1020.3 14.5 SSW 19.0 0.0 0.4
21:54 10.0 7.9 87 1020.6 13.6 SW 19.0 0.0 0.4
21:55 10.0 7.9 87 1020.5 13.0 SW 19.0 0.0 0.4
21:56 10.0 7.9 87 1020.5 11.4 SW 19.0 0.0 0.4
21:57 10.0 7.9 87 1020.3 13.6 SW 19.0 0.0 0.4
21:58 10.0 7.9 87 1020.4 13.6 W 19.0 0.0 0.4
21:59 10.0 7.9 87 1020.3 9.8 SW 15.2 0.0 0.4
22:00 10.0 7.9 87 1020.4 13.6 SW 15.2 0.0 0.4
22:01 10.0 7.9 87 1020.4 13.6 SW 15.2 0.0 0.4
22:02 10.0 7.9 87 1020.5 15.2 W 15.2 0.0 0.4
22:03 10.0 7.9 87 1020.4 15.2 SW 15.2 0.0 0.4
22:04 10.0 7.9 87 1020.4 14.5 SW 15.2 0.0 0.4
22:05 10.0 7.9 87 1020.4 15.9 SW 15.9 0.0 0.4
22:06 10.0 7.9 87 1020.3 15.2 SW 17.4 0.0 0.4
22:07 10.0 7.9 87 1020.2 15.9 SW 17.4 0.0 0.4
22:09 10.0 7.9 87 1020.2 20.6 S 20.6 0.0 0.4
22:10 10.0 7.9 87 1020.2 14.5 S 20.6 0.0 0.4
22:11 10.0 7.9 87 1020.3 13.6 SW 20.6 0.0 0.4
22:12 10.0 7.9 87 1020.2 13.6 SW 20.6 0.0 0.4
22:13 10.0 7.9 87 1020.1 15.2 SW 20.6 0.0 0.4
22:14 10.0 7.9 87 1020.2 14.5 SW 20.6 0.0 0.4
22:15 10.0 7.9 87 1020.1 14.5 W 20.6 0.0 0.4
22:16 10.0 7.9 87 1020.1 10.7 S 20.6 0.0 0.4
22:17 10.0 7.9 87 1020.1 17.4 SW 20.6 0.0 0.4
22:18 10.0 7.9 87 1020.2 13.6 WNW 20.6 0.0 0.4
22:19 10.0 7.9 87 1020.1 14.5 S 20.6 0.0 0.4
22:20 10.0 7.9 87 1020.1 14.5 S 17.4 0.0 0.4
22:21 10.0 7.9 87 1020.3 14.5 SW 17.4 0.0 0.4
22:22 10.0 7.9 87 1020.0 9.2 SSW 17.4 0.0 0.4
22:23 10.0 7.9 87 1020.3 9.2 SW 17.4 0.0 0.4
22:24 10.0 7.9 87 1020.2 11.4 W 17.4 0.0 0.4
22:25 10.0 7.9 87 1020.2 9.2 S 17.4 0.0 0.4
22:26 10.0 7.9 87 1020.0 13.6 SW 17.4 0.0 0.4
22:27 10.0 7.9 87 1020.2 14.5 SW 17.4 0.0 0.4
22:28 10.0 7.9 87 1020.3 14.5 SW 14.5 0.0 0.4
22:29 10.0 7.9 87 1020.1 13.0 S 14.5 0.0 0.4
22:30 10.0 7.9 87 1020.1 13.6 SW 14.5 0.0 0.4
22:31 10.0 7.9 87 1020.0 11.4 SW 14.5 0.0 0.4
22:32 10.0 7.9 87 1020.0 15.2 SW 15.2 0.0 0.4
22:33 10.0 7.9 87 1020.0 15.2 SW 15.2 0.0 0.4
22:34 10.0 7.9 87 1020.1 11.4 SW 15.9 0.0 0.4
22:36 10.0 7.9 87 1020.3 12.1 SW 15.9 0.0 0.4
22:37 10.0 7.9 87 1020.3 13.0 SW 15.9 0.0 0.4
22:38 10.0 7.9 87 1020.2 14.5 SW 15.9 0.0 0.4
22:39 10.0 7.9 87 1019.9 13.6 SW 15.9 0.0 0.4
22:40 10.0 7.9 87 1019.9 9.8 SW 15.9 0.0 0.4
22:41 10.0 7.9 87 1020.1 9.8 SW 15.9 0.0 0.4
22:42 10.0 7.9 87 1020.0 15.2 SW 15.9 0.0 0.4
22:43 10.0 7.9 87 1020.0 14.5 SW 15.9 0.0 0.4
22:44 10.0 7.9 87 1019.8 13.6 W 15.2 0.0 0.4
22:45 10.1 8.0 87 1020.1 15.2 SW 15.2 0.0 0.4
22:46 10.1 8.0 87 1020.2 13.6 SW 15.2 0.0 0.4
22:47 10.1 8.0 87 1020.2 13.6 S 15.2 0.0 0.4
22:48 10.1 8.0 87 1020.0 13.6 SW 15.2 0.0 0.4
22:49 10.1 8.0 87 1020.1 15.9 SW 15.9 0.0 0.4
22:50 10.1 8.0 87 1020.1 16.8 W 16.8 0.0 0.4
22:51 10.1 8.0 87 1019.9 16.8 SW 16.8 0.0 0.4
22:53 10.1 8.0 87 1019.9 10.7 S 16.8 0.0 0.4
22:54 10.1 8.0 87 1020.2 14.5 SW 16.8 0.0 0.4
22:55 10.1 8.0 87 1019.8 14.5 SW 16.8 0.0 0.4
22:56 10.1 8.0 87 1020.0 14.5 SW 16.8 0.0 0.4
22:57 10.1 8.0 87 1020.1 17.4 SW 17.4 0.0 0.4
22:58 10.1 8.0 87 1019.9 18.3 SW 18.3 0.0 0.4
22:59 10.1 8.0 87 1020.0 15.2 SW 18.3 0.0 0.4
23:00 10.1 8.0 87 1020.1 15.2 S 18.3 0.0 0.4
23:01 10.1 8.0 87 1020.0 15.2 S 18.3 0.0 0.4
23:02 10.1 8.0 87 1019.9 15.2 S 18.3 0.0 0.4
23:03 10.1 8.0 87 1019.9 15.2 S 18.3 0.0 0.4
23:04 10.1 8.0 87 1019.8 15.2 S 18.3 0.0 0.4
23:05 10.1 8.0 87 1020.0 15.2 S 18.3 0.0 0.4
23:07 10.1 8.2 88 1019.9 12.1 SW 18.3 0.8 0.4
23:08 10.1 8.2 88 1019.9 13.0 SSW 18.3 0.8 0.4
23:09 10.1 8.2 88 1019.7 15.2 SW 15.2 0.8 0.4
23:10 10.1 8.2 88 1020.0 13.0 SW 15.2 0.8 0.4
23:11 10.1 8.2 88 1019.8 17.4 SW 17.4 0.8 0.4
23:12 10.1 8.2 88 1019.7 15.9 S 17.4 0.0 0.4
23:13 10.1 8.2 88 1019.7 15.9 S 17.4 0.0 0.4
23:14 10.1 8.2 88 1019.7 15.2 SW 17.4 0.0 0.4
23:15 10.1 8.2 88 1019.7 14.5 SW 17.4 0.0 0.4
23:16 10.1 8.2 88 1020.0 16.8 SW 17.4 0.0 0.4
23:17 10.1 8.2 88 1019.8 16.8 SW 17.4 0.0 0.4
23:18 10.1 8.2 88 1019.8 19.0 SW 19.0 0.0 0.4
23:19 10.1 8.2 88 1019.7 15.9 SW 19.0 0.0 0.4
23:20 10.1 8.2 88 1019.8 16.8 SW 19.0 0.0 0.4
23:21 10.1 8.2 88 1019.6 14.5 S 19.0 0.0 0.4
23:22 10.1 8.2 88 1019.8 13.0 SW 19.0 0.0 0.4
23:23 10.1 8.2 88 1019.7 13.0 S 19.0 0.0 0.4
23:24 10.1 8.2 88 1019.6 11.4 W 19.0 0.0 0.4
23:25 10.1 8.2 88 1019.7 10.7 S 19.0 0.0 0.4
23:26 10.1 8.2 88 1019.7 18.3 SW 19.0 0.0 0.4
23:28 10.1 8.2 88 1019.8 13.0 SW 19.0 0.0 0.4
23:29 10.1 8.2 88 1019.5 11.4 SW 19.0 0.0 0.4
23:30 10.1 8.2 88 1019.9 16.8 SW 19.0 0.0 0.4
23:31 10.1 8.2 88 1019.8 15.9 SW 19.0 0.0 0.4
23:32 10.1 8.2 88 1019.7 13.0 SW 19.0 0.0 0.4
23:33 10.1 8.2 88 1019.7 13.0 SW 19.0 0.0 0.4
23:34 10.1 8.2 88 1019.5 12.1 SW 19.0 0.0 0.4
23:35 10.1 8.2 88 1019.6 16.8 W 19.0 0.0 0.4
23:36 10.1 8.2 88 1019.5 16.8 SW 18.3 0.0 0.4
23:37 10.1 8.2 88 1019.6 15.9 SW 16.8 0.0 0.4
23:38 10.1 8.2 88 1019.4 15.2 W 16.8 0.0 0.4
23:39 10.1 8.2 88 1019.5 16.8 SW 16.8 0.0 0.4
23:40 10.1 8.2 88 1019.7 16.8 SW 16.8 0.0 0.4
23:41 10.1 8.2 88 1019.3 15.9 SW 16.8 0.0 0.4
23:42 10.1 8.2 88 1019.5 14.5 SW 18.3 0.0 0.4
23:44 10.1 8.2 88 1019.7 15.9 SW 18.3 0.0 0.4
23:45 10.1 8.2 88 1019.5 15.2 S 18.3 0.0 0.4
23:46 10.1 8.2 88 1019.4 13.0 W 18.3 0.0 0.4
23:47 10.1 8.2 88 1019.5 14.5 SW 18.3 0.0 0.4
23:48 10.1 8.2 88 1019.5 16.8 SW 18.3 0.0 0.4
23:49 10.1 8.2 88 1019.6 17.4 SW 18.3 0.0 0.4
23:50 10.1 8.2 88 1019.5 11.4 SW 18.3 0.0 0.4
23:51 10.1 8.2 88 1019.4 15.2 SW 18.3 0.0 0.4
23:52 10.1 8.2 88 1019.4 13.0 SW 17.4 0.0 0.4
23:53 10.1 8.2 88 1019.6 17.4 SW 17.4 0.0 0.4
23:54 10.1 8.2 88 1019.5 17.4 S 17.4 0.0 0.4
23:55 10.1 8.2 88 1019.4 13.6 SW 17.4 0.0 0.4
23:56 10.1 8.2 88 1019.4 13.0 S 17.4 0.0 0.4
23:57 10.1 8.2 88 1019.4 13.0 SW 17.4 0.0 0.4
23:58 10.1 8.2 88 1019.4 15.2 W 17.4 0.0 0.4
23:59 10.1 8.2 88 1019.4 12.1 SW 17.4 0.0 0.4

 

 

UK - WEATHER STATION TOPSITES - UK World Weather Websites

Copyright © Carnkie Weather 2009 - 2021.